EW4118 Weather Reports


Display with metric or nautical units.
time (UTC)temp
F
wind
direction
speed
MPH
gust
MPH
rain 1hr
in
rain 24hr
in
rain mn
in
humidity
%
barometer
mb
20180925151706 70 221 1.0 4.0 0.00 0.00 0.00 93 1011.6
20180925151605 70 218 1.0 4.0 0.00 0.00 0.00 93 1011.6
20180925151506 70 207 1.0 4.0 0.00 0.00 0.00 93 1011.6
20180925151405 70 206 1.0 4.0 0.00 0.00 0.00 93 1011.6
20180925151306 70 188 1.0 3.0 0.00 0.00 0.00 93 1011.6
20180925151205 70 170 1.0 3.0 0.00 0.00 0.00 93 1011.6
20180925151106 70 175 1.0 3.0 0.00 0.00 0.00 94 1011.6
20180925151005 70 160 1.0 3.0 0.00 0.00 0.00 94 1011.6
20180925150906 70 168 1.0 3.0 0.00 0.00 0.00 94 1011.6
20180925150806 70 185 1.0 4.0 0.00 0.00 0.00 94 1011.6
20180925150705 70 204 1.0 4.0 0.00 0.00 0.00 94 1011.6
20180925150606 70 204 1.0 4.0 0.00 0.00 0.00 94 1011.7
20180925150506 69 204 0.0 3.0 0.00 0.00 0.00 94 1011.3
20180925150405 70 204 1.0 4.0 0.00 0.00 0.00 94 1011.7
20180925150306 70 204 0.0 4.0 0.00 0.00 0.00 95 1011.7
20180925150205 69 204 0.0 4.0 0.00 0.00 0.00 95 1011.7
20180925150105 69 203 0.0 4.0 0.00 0.00 0.00 95 1011.6
20180925150006 69 203 0.0 4.0 0.00 0.00 0.00 95 1011.6
20180925145905 69 202 0.0 4.0 0.00 0.00 0.00 95 1011.7
20180925145805 69 193 0.0 4.0 0.00 0.00 0.00 95 1011.7
20180925145705 69 0 0.0 0.0 0.00 0.00 0.00 95 1011.8
20180925145605 69 0 0.0 0.0 0.00 0.00 0.00 95 1011.8
20180925145506 69 0 0.0 0.0 0.00 0.00 0.00 95 1011.8
20180925145405 69 0 0.0 0.0 0.00 0.00 0.00 95 1011.8
20180925145306 69 0 0.0 0.0 0.00 0.00 0.00 96 1011.9
20180925145206 69 0 0.0 0.0 0.00 0.00 0.00 96 1011.9
20180925145106 69 0 0.0 0.0 0.00 0.00 0.00 96 1011.9
20180925145006 69 0 0.0 0.0 0.00 0.00 0.00 96 1011.9
20180925144906 69 0 0.0 0.0 0.00 0.00 0.00 96 1012.0
20180925144806 69 0 0.0 0.0 0.00 0.00 0.00 96 1012.0
20180925144705 69 223 0.0 3.0 0.00 0.00 0.00 96 1012.0
20180925144606 69 222 0.0 3.0 0.00 0.00 0.00 97 1012.0
20180925144505 69 222 0.0 3.0 0.00 0.00 0.00 97 1012.1
20180925144406 69 222 0.0 3.0 0.00 0.00 0.00 97 1012.1
20180925144305 68 222 0.0 3.0 0.00 0.00 0.00 97 1012.1
20180925144206 68 222 0.0 3.0 0.00 0.00 0.00 98 1012.2
20180925144105 68 222 0.0 3.0 0.00 0.00 0.00 98 1012.2
20180925144006 68 222 0.0 3.0 0.00 0.00 0.00 98 1012.2
20180925143905 68 222 0.0 3.0 0.00 0.00 0.00 98 1012.2
20180925143806 68 222 0.0 3.0 0.00 0.00 0.00 98 1012.2
20180925143705 68 188 0.0 2.0 0.00 0.00 0.00 98 1012.1
20180925143606 68 0 0.0 0.0 0.00 0.00 0.00 98 1012.1
20180925143505 68 0 0.0 0.0 0.00 0.00 0.00 98 1012.2
20180925143406 68 0 0.0 0.0 0.00 0.00 0.00 98 1012.2
20180925143305 68 0 0.0 0.0 0.00 0.00 0.00 98 1012.2
20180925143206 68 0 0.0 0.0 0.00 0.00 0.00 98 1012.2
20180925143105 68 0 0.0 0.0 0.00 0.00 0.00 98 1012.2
20180925143006 68 0 0.0 0.0 0.00 0.00 0.00 98 1012.2
20180925142905 68 0 0.0 0.0 0.00 0.00 0.00 98 1012.2
20180925142805 68 0 0.0 0.0 0.00 0.00 0.00 98 1012.2
20180925142706 68 0 0.0 0.0 0.00 0.00 0.00 98 1012.2
20180925142605 68 0 0.0 0.0 0.00 0.00 0.00 98 1012.2
20180925142505 68 0 0.0 0.0 0.00 0.00 0.00 99 1012.2
20180925142406 67 0 0.0 0.0 0.00 0.00 0.00 99 1012.2
20180925142306 67 0 0.0 0.0 0.00 0.00 0.00 99 1012.2
20180925142205 67 0 0.0 0.0 0.00 0.00 0.00 99 1012.2
20180925142106 67 0 0.0 0.0 0.00 0.00 0.00 99 1012.2
20180925142005 67 0 0.0 0.0 0.00 0.00 0.00 99 1012.2
20180925141907 67 0 0.0 0.0 0.00 0.00 0.00 98 1012.3
20180925141806 67 0 0.0 0.0 0.00 0.00 0.00 98 1012.3
20180925141705 67 0 0.0 0.0 0.00 0.00 0.00 98 1012.3
20180925141606 67 0 0.0 0.0 0.00 0.00 0.00 98 1012.3
20180925141505 67 0 0.0 0.0 0.00 0.00 0.00 99 1012.3
20180925141406 67 0 0.0 0.0 0.00 0.00 0.00 99 1012.4
20180925141306 67 0 0.0 0.0 0.00 0.00 0.00 99 1012.4
20180925141205 67 0 0.0 0.0 0.00 0.00 0.00 99 1012.4
20180925141106 67 0 0.0 0.0 0.00 0.00 0.00 99 1012.3
20180925141005 67 0 0.0 0.0 0.00 0.00 0.00 99 1012.3
20180925140906 66 196 0.0 0.0 0.00 0.00 0.00 99 1012.0
20180925140805 67 0 0.0 0.0 0.00 0.00 0.00 99 1012.3
20180925140706 67 0 0.0 0.0 0.00 0.00 0.00 99 1012.3
20180925140605 67 0 0.0 0.0 0.00 0.00 0.00 99 1012.3
20180925140506 66 0 0.0 0.0 0.00 0.00 0.00 99 1012.3
20180925140405 66 0 0.0 0.0 0.00 0.00 0.00 99 1012.3
20180925140305 66 0 0.0 0.0 0.00 0.00 0.00 99 1012.3
20180925140206 66 0 0.0 0.0 0.00 0.00 0.00 99 1012.3
20180925140105 66 0 0.0 0.0 0.00 0.00 0.00 99 1012.3
20180925140006 66 0 0.0 0.0 0.00 0.00 0.00 99 1012.3
20180925135905 66 0 0.0 0.0 0.00 0.00 0.00 99 1012.2
20180925135806 66 196 0.0 2.0 0.00 0.00 0.00 99 1012.2
20180925135705 66 196 0.0 2.0 0.00 0.00 0.00 99 1012.1
20180925135606 66 196 0.0 2.0 0.00 0.00 0.00 99 1012.1
20180925135506 66 196 0.0 2.0 0.00 0.00 0.00 99 1012.2
20180925135405 66 196 0.0 2.0 0.00 0.00 0.00 99 1012.2
20180925135305 66 196 0.0 2.0 0.00 0.00 0.00 99 1012.2
20180925135206 66 196 0.0 2.0 0.00 0.00 0.00 99 1012.2
20180925135105 65 195 0.0 1.0 0.00 0.00 0.00 99 1011.9
20180925135006 66 196 0.0 2.0 0.00 0.00 0.00 99 1012.2
20180925134905 66 196 0.0 2.0 0.00 0.00 0.00 99 1012.2
20180925134805 66 196 0.0 2.0 0.00 0.00 0.00 99 1012.1
20180925134706 66 196 0.0 2.0 0.00 0.00 0.00 99 1012.1
20180925134606 66 196 0.0 2.0 0.00 0.00 0.00 99 1012.1
20180925134505 66 196 0.0 2.0 0.00 0.00 0.00 99 1012.2
20180925134406 66 196 0.0 2.0 0.00 0.00 0.00 99 1012.2
20180925134305 66 196 0.0 2.0 0.00 0.00 0.00 99 1012.2
20180925134206 65 196 0.0 2.0 0.00 0.00 0.00 99 1012.2
20180925134106 65 195 0.0 2.0 0.00 0.00 0.00 99 1012.2
20180925134007 65 195 0.0 2.0 0.00 0.00 0.00 99 1012.2
20180925133907 65 195 0.0 2.0 0.00 0.00 0.00 99 1012.2
20180925133806 65 195 0.0 2.0 0.00 0.00 0.00 99 1012.2
20180925133706 65 195 0.0 2.0 0.00 0.00 0.00 99 1012.2
20180925133605 65 195 0.0 2.0 0.00 0.00 0.00 99 1012.2
20180925133506 65 195 0.0 2.0 0.00 0.00 0.00 99 1012.2
20180925133405 65 195 0.0 2.0 0.00 0.00 0.00 99 1012.2
20180925133308 64 195 0.0 1.0 0.00 0.00 0.00 99 1012.0
20180925133305 65 195 0.0 2.0 0.00 0.00 0.00 99 1012.2
20180925133206 64 195 0.0 2.0 0.00 0.00 0.00 99 1012.2
20180925133105 64 195 0.0 2.0 0.00 0.00 0.00 99 1012.2
20180925133006 64 195 0.0 3.0 0.00 0.00 0.00 99 1012.2
20180925132905 64 195 0.0 3.0 0.00 0.00 0.00 99 1012.1
20180925132805 64 195 0.0 3.0 0.00 0.00 0.00 99 1012.1
20180925132705 64 195 0.0 3.0 0.00 0.00 0.00 99 1012.2
20180925132605 64 195 0.0 3.0 0.00 0.00 0.00 99 1012.2
20180925132506 64 195 0.0 3.0 0.00 0.00 0.00 99 1012.2
20180925132405 64 195 0.0 3.0 0.00 0.00 0.00 99 1012.2
20180925132305 64 195 0.0 3.0 0.00 0.00 0.00 99 1012.3
20180925132205 63 195 0.0 3.0 0.00 0.00 0.00 98 1012.2
20180925132106 63 195 0.0 3.0 0.00 0.00 0.00 98 1012.3
20180925132006 63 195 0.0 3.0 0.00 0.00 0.00 98 1012.3
20180925131905 63 194 0.0 2.0 0.00 0.00 0.00 98 1012.2
20180925131806 62 0 0.0 0.0 0.00 0.00 0.00 98 1012.2
20180925131705 62 0 0.0 0.0 0.00 0.00 0.00 98 1012.2
20180925131606 62 0 0.0 0.0 0.00 0.00 0.00 98 1012.2
20180925131505 62 0 0.0 0.0 0.00 0.00 0.00 98 1012.3
20180925131406 62 0 0.0 0.0 0.00 0.00 0.00 98 1012.3
20180925131306 62 0 0.0 0.0 0.00 0.00 0.00 98 1012.3
20180925131205 62 0 0.0 0.0 0.00 0.00 0.00 98 1012.3
20180925131106 62 0 0.0 0.0 0.00 0.00 0.00 98 1012.3
20180925131005 62 0 0.0 0.0 0.00 0.00 0.00 98 1012.3
20180925130906 62 0 0.0 0.0 0.00 0.00 0.00 98 1012.3
20180925130805 62 0 0.0 0.0 0.00 0.00 0.00 98 1012.3
20180925130706 62 0 0.0 0.0 0.00 0.00 0.00 98 1012.3
20180925130605 62 0 0.0 0.0 0.00 0.00 0.00 98 1012.3
20180925130506 62 0 0.0 0.0 0.00 0.00 0.00 98 1012.3
20180925130405 62 0 0.0 0.0 0.00 0.00 0.00 98 1012.3
20180925130306 62 0 0.0 0.0 0.00 0.00 0.00 98 1012.3
20180925130205 62 0 0.0 0.0 0.00 0.00 0.00 98 1012.3
20180925130106 62 0 0.0 0.0 0.00 0.00 0.00 98 1012.3
20180925130006 62 0 0.0 0.0 0.00 0.00 0.00 98 1012.3
20180925125905 62 0 0.0 0.0 0.00 0.00 0.00 98 1012.3
20180925125806 62 0 0.0 0.0 0.00 0.00 0.00 98 1012.3
20180925125706 62 0 0.0 0.0 0.00 0.00 0.00 98 1012.3
20180925125606 62 0 0.0 0.0 0.00 0.00 0.00 98 1012.3
20180925125506 62 0 0.0 0.0 0.00 0.00 0.00 98 1012.3
20180925125405 62 0 0.0 0.0 0.00 0.00 0.00 98 1012.3
20180925125306 62 0 0.0 0.0 0.00 0.00 0.00 98 1012.4
20180925125206 62 0 0.0 0.0 0.00 0.00 0.00 98 1012.4
20180925125106 62 0 0.0 0.0 0.00 0.00 0.00 98 1012.4
20180925125005 61 0 0.0 0.0 0.00 0.00 0.00 98 1012.4
20180925124906 61 0 0.0 0.0 0.00 0.00 0.00 98 1012.4
20180925124806 61 0 0.0 0.0 0.00 0.00 0.00 98 1012.4
20180925124705 61 0 0.0 0.0 0.00 0.00 0.00 98 1012.4
20180925124606 61 0 0.0 0.0 0.00 0.00 0.00 98 1012.4
20180925124505 61 0 0.0 0.0 0.00 0.00 0.00 98 1012.3
20180925124406 61 0 0.0 0.0 0.00 0.00 0.00 98 1012.4
20180925124306 61 0 0.0 0.0 0.00 0.00 0.00 98 1012.4
20180925124205 61 0 0.0 0.0 0.00 0.00 0.00 98 1012.4
20180925124106 61 0 0.0 0.0 0.00 0.00 0.00 98 1012.4
20180925124005 61 0 0.0 0.0 0.00 0.00 0.00 98 1012.4
20180925123906 61 0 0.0 0.0 0.00 0.00 0.00 98 1012.4
20180925123807 60 195 0.0 0.0 0.00 0.00 0.00 98 1012.2
20180925123805 61 0 0.0 0.0 0.00 0.00 0.00 98 1012.4
20180925123706 61 0 0.0 0.0 0.00 0.00 0.00 98 1012.4
20180925123606 61 0 0.0 0.0 0.00 0.00 0.00 98 1012.4
20180925123505 61 0 0.0 0.0 0.00 0.00 0.00 98 1012.4
20180925123406 61 0 0.0 0.0 0.00 0.00 0.00 98 1012.4
20180925123305 61 0 0.0 0.0 0.00 0.00 0.00 98 1012.5
20180925123206 61 0 0.0 0.0 0.00 0.00 0.00 98 1012.4
20180925123105 61 0 0.0 0.0 0.00 0.00 0.00 98 1012.4
20180925123006 61 0 0.0 0.0 0.00 0.00 0.00 98 1012.4
20180925122906 61 0 0.0 0.0 0.00 0.00 0.00 98 1012.4
20180925122806 61 0 0.0 0.0 0.00 0.00 0.00 98 1012.4
20180925122705 61 0 0.0 0.0 0.00 0.00 0.00 98 1012.4
20180925122606 61 0 0.0 0.0 0.00 0.00 0.00 98 1012.4
20180925122505 61 0 0.0 0.0 0.00 0.00 0.00 98 1012.4
20180925122406 61 0 0.0 0.0 0.00 0.00 0.00 98 1012.4
20180925122305 61 0 0.0 0.0 0.00 0.00 0.00 98 1012.4
20180925122205 61 0 0.0 0.0 0.00 0.00 0.00 98 1012.4
20180925122106 61 0 0.0 0.0 0.00 0.00 0.00 98 1012.4
20180925122005 61 0 0.0 0.0 0.00 0.00 0.00 98 1012.4
20180925121905 61 0 0.0 0.0 0.00 0.00 0.00 98 1012.4
20180925121805 61 0 0.0 0.0 0.00 0.00 0.00 98 1012.5
20180925121706 61 0 0.0 0.0 0.00 0.00 0.00 98 1012.5
20180925121606 61 0 0.0 0.0 0.00 0.00 0.00 97 1012.4
20180925121505 61 0 0.0 0.0 0.00 0.00 0.00 97 1012.4
20180925121406 61 0 0.0 0.0 0.00 0.00 0.00 97 1012.4
20180925121305 61 0 0.0 0.0 0.00 0.00 0.00 97 1012.4
20180925121206 61 0 0.0 0.0 0.00 0.00 0.00 97 1012.4
20180925121105 61 0 0.0 0.0 0.00 0.00 0.00 97 1012.5
20180925121006 61 0 0.0 0.0 0.00 0.00 0.00 97 1012.4
20180925120905 61 0 0.0 0.0 0.00 0.00 0.00 97 1012.5
20180925120805 61 0 0.0 0.0 0.00 0.00 0.00 97 1012.5
20180925120706 61 0 0.0 0.0 0.00 0.00 0.00 97 1012.5
20180925120605 61 0 0.0 0.0 0.00 0.00 0.00 97 1012.5
20180925120506 61 0 0.0 0.0 0.00 0.00 0.00 97 1012.5
20180925120405 61 0 0.0 0.0 0.00 0.00 0.00 97 1012.4
20180925120305 61 0 0.0 0.0 0.00 0.00 0.00 97 1012.4
20180925120206 61 0 0.0 0.0 0.00 0.00 0.00 97 1012.4
20180925120105 61 0 0.0 0.0 0.00 0.00 0.00 97 1012.4
20180925120023 60 195 0.0 0.0 0.00 0.00 0.00 97 1012.2
20180925120005 61 0 0.0 0.0 0.00 0.00 0.00 97 1012.5
20180925115905 61 0 0.0 0.0 0.00 0.00 0.00 97 1012.5
20180925115805 61 0 0.0 0.0 0.00 0.00 0.00 97 1012.4
20180925115706 61 0 0.0 0.0 0.00 0.00 0.00 97 1012.4
20180925115605 61 0 0.0 0.0 0.00 0.00 0.00 97 1012.4
20180925115506 61 0 0.0 0.0 0.00 0.00 0.00 97 1012.4
20180925115405 61 0 0.0 0.0 0.00 0.00 0.00 97 1012.4
20180925115306 61 0 0.0 0.0 0.00 0.00 0.00 97 1012.4
20180925115205 61 0 0.0 0.0 0.00 0.00 0.00 97 1012.4
20180925115106 61 0 0.0 0.0 0.00 0.00 0.00 97 1012.4
20180925115005 61 0 0.0 0.0 0.00 0.00 0.00 97 1012.4
20180925114905 61 0 0.0 0.0 0.00 0.00 0.00 97 1012.4
20180925114806 61 0 0.0 0.0 0.00 0.00 0.00 97 1012.4
20180925114705 61 0 0.0 0.0 0.00 0.00 0.00 97 1012.4
20180925114606 61 0 0.0 0.0 0.00 0.00 0.00 97 1012.4
20180925114505 61 0 0.0 0.0 0.00 0.00 0.00 97 1012.4
20180925114406 61 0 0.0 0.0 0.00 0.00 0.00 97 1012.4
20180925114305 61 0 0.0 0.0 0.00 0.00 0.00 97 1012.4
20180925114206 61 194 0.0 0.0 0.00 0.00 0.00 97 1012.1
20180925114105 61 0 0.0 0.0 0.00 0.00 0.00 97 1012.3
20180925114006 61 0 0.0 0.0 0.00 0.00 0.00 97 1012.4
20180925113906 61 0 0.0 0.0 0.00 0.00 0.00 97 1012.3
20180925113805 61 0 0.0 0.0 0.00 0.00 0.00 97 1012.4
20180925113706 61 0 0.0 0.0 0.00 0.00 0.00 97 1012.4
20180925113605 61 0 0.0 0.0 0.00 0.00 0.00 97 1012.4
20180925113505 61 0 0.0 0.0 0.00 0.00 0.00 97 1012.4
20180925113405 61 0 0.0 0.0 0.00 0.00 0.00 97 1012.4
20180925113305 61 0 0.0 0.0 0.00 0.00 0.00 97 1012.4
20180925113207 61 0 0.0 0.0 0.00 0.00 0.00 97 1012.4
20180925113106 61 0 0.0 0.0 0.00 0.00 0.00 97 1012.4
20180925113005 61 0 0.0 0.0 0.00 0.00 0.00 97 1012.3
20180925112905 61 0 0.0 0.0 0.00 0.00 0.00 97 1012.3
20180925112805 61 0 0.0 0.0 0.00 0.00 0.00 97 1012.3
20180925112705 61 0 0.0 0.0 0.00 0.00 0.00 97 1012.3
20180925112606 61 0 0.0 0.0 0.00 0.00 0.00 97 1012.4
20180925112505 61 0 0.0 0.0 0.00 0.00 0.00 97 1012.4
20180925112406 61 0 0.0 0.0 0.00 0.00 0.00 97 1012.3
20180925112403 61 194 0.0 0.0 0.00 0.00 0.00 97 1012.1
20180925112305 61 0 0.0 0.0 0.00 0.00 0.00 97 1012.3
20180925112206 61 0 0.0 0.0 0.00 0.00 0.00 97 1012.3
20180925112105 61 0 0.0 0.0 0.00 0.00 0.00 97 1012.3
20180925112005 61 0 0.0 0.0 0.00 0.00 0.00 97 1012.3
20180925111906 61 0 0.0 0.0 0.00 0.00 0.00 97 1012.3
20180925111807 61 0 0.0 0.0 0.00 0.00 0.00 97 1012.3
20180925111705 61 0 0.0 0.0 0.00 0.00 0.00 97 1012.3
20180925111605 61 0 0.0 0.0 0.00 0.00 0.00 97 1012.3
20180925111506 61 0 0.0 0.0 0.00 0.00 0.00 97 1012.3
20180925111405 61 0 0.0 0.0 0.00 0.00 0.00 97 1012.4
20180925111305 61 0 0.0 0.0 0.00 0.00 0.00 97 1012.4
20180925111205 61 0 0.0 0.0 0.00 0.00 0.00 97 1012.4
20180925111105 61 0 0.0 0.0 0.00 0.00 0.00 97 1012.4
20180925111005 61 0 0.0 0.0 0.00 0.00 0.00 97 1012.4
20180925110905 61 0 0.0 0.0 0.00 0.00 0.00 97 1012.4
20180925110806 61 0 0.0 0.0 0.00 0.00 0.00 97 1012.4
20180925110705 61 0 0.0 0.0 0.00 0.00 0.00 97 1012.4
20180925110605 61 0 0.0 0.0 0.00 0.00 0.00 97 1012.4
20180925110506 61 0 0.0 0.0 0.00 0.00 0.00 97 1012.4
20180925110405 61 0 0.0 0.0 0.00 0.00 0.00 97 1012.4
20180925110306 61 0 0.0 0.0 0.00 0.00 0.00 97 1012.4
20180925110205 61 0 0.0 0.0 0.00 0.00 0.00 97 1012.4
20180925110106 61 0 0.0 0.0 0.00 0.00 0.00 97 1012.4
20180925110005 61 0 0.0 0.0 0.00 0.00 0.00 97 1012.4
20180925105905 62 0 0.0 0.0 0.00 0.00 0.00 97 1012.4
20180925105806 62 0 0.0 0.0 0.00 0.00 0.00 97 1012.4
20180925105705 62 0 0.0 0.0 0.00 0.00 0.00 97 1012.4
20180925105606 62 0 0.0 0.0 0.00 0.00 0.00 97 1012.4
20180925105505 62 0 0.0 0.0 0.00 0.00 0.00 97 1012.4
20180925105408 62 0 0.0 0.0 0.00 0.00 0.00 97 1012.4
20180925105305 62 0 0.0 0.0 0.00 0.00 0.00 97 1012.4
20180925105206 62 0 0.0 0.0 0.00 0.00 0.00 97 1012.3
20180925105105 62 0 0.0 0.0 0.00 0.00 0.00 97 1012.3
20180925105006 62 0 0.0 0.0 0.00 0.00 0.00 97 1012.3
20180925104905 62 0 0.0 0.0 0.00 0.00 0.00 97 1012.4
20180925104805 62 0 0.0 0.0 0.00 0.00 0.00 97 1012.3
20180925104705 62 0 0.0 0.0 0.00 0.00 0.00 97 1012.3
20180925104605 62 0 0.0 0.0 0.00 0.00 0.00 97 1012.3
20180925104506 62 0 0.0 0.0 0.00 0.00 0.00 97 1012.3
20180925104405 62 0 0.0 0.0 0.00 0.00 0.00 97 1012.3
20180925104306 62 0 0.0 0.0 0.00 0.00 0.00 97 1012.3
20180925104205 62 0 0.0 0.0 0.00 0.00 0.00 97 1012.3
20180925104105 62 0 0.0 0.0 0.00 0.00 0.00 97 1012.3
20180925104005 62 0 0.0 0.0 0.00 0.00 0.00 97 1012.3
20180925103905 62 0 0.0 0.0 0.00 0.00 0.00 97 1012.3
20180925103806 62 0 0.0 0.0 0.00 0.00 0.00 97 1012.3
20180925103705 62 0 0.0 0.0 0.00 0.00 0.00 97 1012.3
20180925103606 62 0 0.0 0.0 0.00 0.00 0.00 97 1012.4
20180925103505 62 0 0.0 0.0 0.00 0.00 0.00 97 1012.4
20180925103406 62 0 0.0 0.0 0.00 0.00 0.00 97 1012.3
20180925103305 62 0 0.0 0.0 0.00 0.00 0.00 97 1012.3
20180925103206 62 0 0.0 0.0 0.00 0.00 0.00 97 1012.3
20180925103105 62 0 0.0 0.0 0.00 0.00 0.00 97 1012.3
20180925103005 62 0 0.0 0.0 0.00 0.00 0.00 97 1012.3
20180925102907 62 0 0.0 0.0 0.00 0.00 0.00 97 1012.3
20180925102807 61 194 0.0 0.0 0.00 0.00 0.00 97 1012.0
20180925102705 62 0 0.0 0.0 0.00 0.00 0.00 97 1012.2
20180925102605 62 0 0.0 0.0 0.00 0.00 0.00 97 1012.2
20180925102505 62 0 0.0 0.0 0.00 0.00 0.00 97 1012.2
20180925102405 62 0 0.0 0.0 0.00 0.00 0.00 97 1012.3
20180925102306 62 0 0.0 0.0 0.00 0.00 0.00 97 1012.3
20180925102205 62 0 0.0 0.0 0.00 0.00 0.00 97 1012.2
20180925102106 62 0 0.0 0.0 0.00 0.00 0.00 97 1012.2
20180925102005 62 0 0.0 0.0 0.00 0.00 0.00 97 1012.3
20180925101906 62 0 0.0 0.0 0.00 0.00 0.00 97 1012.3
20180925101805 62 0 0.0 0.0 0.00 0.00 0.00 97 1012.2
20180925101706 62 0 0.0 0.0 0.00 0.00 0.00 97 1012.2
20180925101605 62 0 0.0 0.0 0.00 0.00 0.00 97 1012.2
20180925101505 62 0 0.0 0.0 0.00 0.00 0.00 97 1012.2
20180925101405 62 0 0.0 0.0 0.00 0.00 0.00 97 1012.2
20180925101305 62 0 0.0 0.0 0.00 0.00 0.00 98 1012.2
20180925101206 62 0 0.0 0.0 0.00 0.00 0.00 98 1012.2
20180925101105 62 0 0.0 0.0 0.00 0.00 0.00 97 1012.2
20180925101007 61 194 0.0 0.0 0.00 0.00 0.00 97 1011.9
20180925100905 61 0 0.0 0.0 0.00 0.00 0.00 97 1012.1
20180925100805 61 0 0.0 0.0 0.00 0.00 0.00 97 1012.2
20180925100706 61 0 0.0 0.0 0.00 0.00 0.00 97 1012.2
20180925100605 61 0 0.0 0.0 0.00 0.00 0.00 97 1012.1
20180925100506 61 0 0.0 0.0 0.00 0.00 0.00 97 1012.1
20180925100406 61 0 0.0 0.0 0.00 0.00 0.00 97 1012.1
20180925100305 61 0 0.0 0.0 0.00 0.00 0.00 97 1012.1
20180925100205 61 0 0.0 0.0 0.00 0.00 0.00 97 1012.1
20180925100105 61 0 0.0 0.0 0.00 0.00 0.00 97 1012.1
20180925100005 61 0 0.0 0.0 0.00 0.00 0.00 97 1012.1
20180925095905 61 0 0.0 0.0 0.00 0.00 0.00 97 1012.1
20180925095805 61 0 0.0 0.0 0.00 0.00 0.00 97 1012.1
20180925095706 61 0 0.0 0.0 0.00 0.00 0.00 97 1012.1
20180925095605 61 0 0.0 0.0 0.00 0.00 0.00 97 1012.1
20180925095507 61 0 0.0 0.0 0.00 0.00 0.00 97 1012.1
20180925095405 61 0 0.0 0.0 0.00 0.00 0.00 97 1012.1
20180925095305 61 0 0.0 0.0 0.00 0.00 0.00 97 1012.1
20180925095208 61 195 0.0 0.0 0.00 0.00 0.00 97 1011.9
20180925095205 61 0 0.0 0.0 0.00 0.00 0.00 97 1012.1
20180925095105 61 0 0.0 0.0 0.00 0.00 0.00 97 1012.1
20180925095005 61 0 0.0 0.0 0.00 0.00 0.00 97 1012.1
20180925094905 61 0 0.0 0.0 0.00 0.00 0.00 97 1012.1
20180925094806 61 0 0.0 0.0 0.00 0.00 0.00 97 1012.1
20180925094705 61 0 0.0 0.0 0.00 0.00 0.00 97 1012.1
20180925094606 61 0 0.0 0.0 0.00 0.00 0.00 97 1012.1
20180925094505 61 0 0.0 0.0 0.00 0.00 0.00 97 1012.1
20180925094406 61 0 0.0 0.0 0.00 0.00 0.00 97 1012.0
20180925094305 61 0 0.0 0.0 0.00 0.00 0.00 97 1012.0
20180925094207 61 0 0.0 0.0 0.00 0.00 0.00 97 1012.0
20180925094105 61 0 0.0 0.0 0.00 0.00 0.00 97 1012.0
20180925094006 61 0 0.0 0.0 0.00 0.00 0.00 97 1012.1
20180925093905 61 0 0.0 0.0 0.00 0.00 0.00 97 1012.1
20180925093805 61 0 0.0 0.0 0.00 0.00 0.00 97 1012.0
20180925093705 61 0 0.0 0.0 0.00 0.00 0.00 97 1012.0
20180925093605 61 0 0.0 0.0 0.00 0.00 0.00 97 1012.0
20180925093505 61 0 0.0 0.0 0.00 0.00 0.00 97 1012.0
20180925093409 61 194 0.0 0.0 0.00 0.00 0.00 97 1011.8
20180925093406 61 0 0.0 0.0 0.00 0.00 0.00 97 1012.0
20180925093305 61 0 0.0 0.0 0.00 0.00 0.00 96 1012.0
20180925093205 61 0 0.0 0.0 0.00 0.00 0.00 96 1011.9
20180925093105 61 0 0.0 0.0 0.00 0.00 0.00 96 1011.9
20180925093006 61 0 0.0 0.0 0.00 0.00 0.00 96 1011.9
20180925092905 61 0 0.0 0.0 0.00 0.00 0.00 96 1011.9
20180925092806 61 0 0.0 0.0 0.00 0.00 0.00 96 1011.9
20180925092705 61 0 0.0 0.0 0.00 0.00 0.00 96 1011.9
20180925092605 61 0 0.0 0.0 0.00 0.00 0.00 96 1011.9
20180925092506 61 0 0.0 0.0 0.00 0.00 0.00 96 1011.9
20180925092407 61 0 0.0 0.0 0.00 0.00 0.00 96 1011.9
20180925092305 61 0 0.0 0.0 0.00 0.00 0.00 96 1011.9
20180925092205 61 0 0.0 0.0 0.00 0.00 0.00 96 1011.9
20180925092105 61 0 0.0 0.0 0.00 0.00 0.00 96 1011.9
20180925092005 61 0 0.0 0.0 0.00 0.00 0.00 96 1011.9
20180925091905 61 0 0.0 0.0 0.00 0.00 0.00 96 1011.9
20180925091805 61 0 0.0 0.0 0.00 0.00 0.00 96 1011.9
20180925091705 61 0 0.0 0.0 0.00 0.00 0.00 96 1011.9
20180925091607 61 195 0.0 0.0 0.00 0.00 0.00 96 1011.7
20180925091605 61 0 0.0 0.0 0.00 0.00 0.00 96 1011.9
20180925091506 61 0 0.0 0.0 0.00 0.00 0.00 96 1011.9
20180925091406 61 0 0.0 0.0 0.00 0.00 0.00 96 1012.0
20180925091306 61 0 0.0 0.0 0.00 0.00 0.00 96 1012.0
20180925091205 61 0 0.0 0.0 0.00 0.00 0.00 96 1011.9
20180925091105 61 0 0.0 0.0 0.00 0.00 0.00 96 1011.9
20180925091006 61 0 0.0 0.0 0.00 0.00 0.00 96 1011.9
20180925090905 61 0 0.0 0.0 0.00 0.00 0.00 96 1011.9
20180925090805 61 0 0.0 0.0 0.00 0.00 0.00 96 1011.9
20180925090705 62 0 0.0 0.0 0.00 0.00 0.00 96 1011.8
20180925090605 62 0 0.0 0.0 0.00 0.00 0.00 96 1011.8
20180925090506 62 0 0.0 0.0 0.00 0.00 0.00 96 1011.8
20180925090405 62 0 0.0 0.0 0.00 0.00 0.00 96 1011.8
20180925090305 62 0 0.0 0.0 0.00 0.00 0.00 96 1011.8
20180925090205 62 0 0.0 0.0 0.00 0.00 0.00 96 1011.8
20180925090105 62 0 0.0 0.0 0.00 0.00 0.00 96 1011.8
20180925090005 62 0 0.0 0.0 0.00 0.00 0.00 96 1011.9
20180925085905 62 0 0.0 0.0 0.00 0.00 0.00 96 1011.8
20180925085806 62 0 0.0 0.0 0.00 0.00 0.00 96 1011.9
20180925085705 62 0 0.0 0.0 0.00 0.00 0.00 96 1011.8
20180925085606 61 195 0.0 0.0 0.00 0.00 0.00 96 1011.6
20180925085506 62 0 0.0 0.0 0.00 0.00 0.00 96 1011.7
20180925085405 62 0 0.0 0.0 0.00 0.00 0.00 96 1011.8
20180925085305 62 0 0.0 0.0 0.00 0.00 0.00 96 1011.8
20180925085205 62 0 0.0 0.0 0.00 0.00 0.00 96 1011.8
20180925085106 62 0 0.0 0.0 0.00 0.00 0.00 96 1011.8
20180925085005 62 0 0.0 0.0 0.00 0.00 0.00 96 1011.8
20180925084905 62 0 0.0 0.0 0.00 0.00 0.00 96 1011.8
20180925084805 62 0 0.0 0.0 0.00 0.00 0.00 96 1011.9
20180925084705 62 0 0.0 0.0 0.00 0.00 0.00 96 1011.9
20180925084605 62 0 0.0 0.0 0.00 0.00 0.00 96 1011.9
20180925084505 62 0 0.0 0.0 0.00 0.00 0.00 96 1011.9
20180925084406 62 0 0.0 0.0 0.00 0.00 0.00 96 1011.8
20180925084305 62 0 0.0 0.0 0.00 0.00 0.00 96 1011.9
20180925084205 62 0 0.0 0.0 0.00 0.00 0.00 96 1011.8
20180925084105 62 0 0.0 0.0 0.00 0.00 0.00 96 1011.9
20180925084006 62 0 0.0 0.0 0.00 0.00 0.00 96 1011.9
20180925083905 62 0 0.0 0.0 0.00 0.00 0.00 96 1011.9
20180925083809 62 195 0.0 0.0 0.00 0.00 0.00 96 1011.7
20180925083805 62 0 0.0 0.0 0.00 0.00 0.00 96 1011.9
20180925083705 62 0 0.0 0.0 0.00 0.00 0.00 96 1011.9
20180925083605 62 0 0.0 0.0 0.00 0.00 0.00 96 1011.9
20180925083505 62 0 0.0 0.0 0.00 0.00 0.00 96 1011.9
20180925083405 62 0 0.0 0.0 0.00 0.00 0.00 96 1011.9
20180925083305 62 0 0.0 0.0 0.00 0.00 0.00 96 1011.9
20180925083205 62 0 0.0 0.0 0.00 0.00 0.00 96 1011.9
20180925083105 62 0 0.0 0.0 0.00 0.00 0.00 96 1011.9
20180925083005 62 0 0.0 0.0 0.00 0.00 0.00 96 1011.9
20180925082905 62 0 0.0 0.0 0.00 0.00 0.00 96 1011.9
20180925082805 62 0 0.0 0.0 0.00 0.00 0.00 96 1011.9
20180925082705 62 0 0.0 0.0 0.00 0.00 0.00 96 1011.9
20180925082605 62 0 0.0 0.0 0.00 0.00 0.00 96 1011.9
20180925082506 62 0 0.0 0.0 0.00 0.00 0.00 96 1011.9
20180925082405 63 0 0.0 0.0 0.00 0.00 0.00 96 1011.9
20180925082305 63 0 0.0 0.0 0.00 0.00 0.00 96 1011.9
20180925082207 63 0 0.0 0.0 0.00 0.00 0.00 96 1011.9
20180925082105 63 0 0.0 0.0 0.00 0.00 0.00 96 1011.9
20180925082005 63 0 0.0 0.0 0.00 0.00 0.00 96 1011.9
20180925081905 63 0 0.0 0.0 0.00 0.00 0.00 96 1012.0
20180925081805 63 0 0.0 0.0 0.00 0.00 0.00 96 1012.0
20180925081705 63 0 0.0 0.0 0.00 0.00 0.00 96 1012.0
20180925081605 63 0 0.0 0.0 0.00 0.00 0.00 96 1012.0
20180925081505 63 0 0.0 0.0 0.00 0.00 0.00 96 1012.0
20180925081405 63 0 0.0 0.0 0.00 0.00 0.00 96 1012.0
20180925081305 63 0 0.0 0.0 0.00 0.00 0.00 96 1012.0
20180925081206 63 0 0.0 0.0 0.00 0.00 0.00 96 1012.0
20180925081105 63 0 0.0 0.0 0.00 0.00 0.00 96 1012.1
20180925081006 63 0 0.0 0.0 0.00 0.00 0.00 96 1012.1
20180925080905 63 0 0.0 0.0 0.00 0.00 0.00 96 1012.1
20180925080805 63 0 0.0 0.0 0.00 0.00 0.00 96 1012.1
20180925080705 63 0 0.0 0.0 0.00 0.00 0.00 96 1012.1
20180925080606 63 0 0.0 0.0 0.00 0.00 0.00 96 1012.2
20180925080505 63 0 0.0 0.0 0.00 0.00 0.00 96 1012.2
20180925080405 63 0 0.0 0.0 0.00 0.00 0.00 96 1012.2
20180925080305 63 0 0.0 0.0 0.00 0.00 0.00 96 1012.2
20180925080206 63 0 0.0 0.0 0.00 0.00 0.00 96 1012.2
20180925080204 63 194 0.0 0.0 0.00 0.00 0.00 96 1012.0
20180925080105 63 0 0.0 0.0 0.00 0.00 0.00 96 1012.2
20180925080006 63 0 0.0 0.0 0.00 0.00 0.00 96 1012.2
20180925075905 63 0 0.0 0.0 0.00 0.00 0.00 96 1012.2
20180925075805 63 0 0.0 0.0 0.00 0.00 0.00 96 1012.2
20180925075705 63 0 0.0 0.0 0.00 0.00 0.00 96 1012.2
20180925075605 63 0 0.0 0.0 0.00 0.00 0.00 96 1012.2
20180925075505 63 0 0.0 0.0 0.00 0.00 0.00 96 1012.2
20180925075406 63 0 0.0 0.0 0.00 0.00 0.00 96 1012.2
20180925075305 63 0 0.0 0.0 0.00 0.00 0.00 96 1012.2
20180925075205 63 0 0.0 0.0 0.00 0.00 0.00 96 1012.3
20180925075105 63 0 0.0 0.0 0.00 0.00 0.00 96 1012.3
20180925075005 64 0 0.0 0.0 0.00 0.00 0.00 96 1012.3
20180925074905 64 0 0.0 0.0 0.00 0.00 0.00 96 1012.3
20180925074805 64 0 0.0 0.0 0.00 0.00 0.00 96 1012.3
20180925074705 64 0 0.0 0.0 0.00 0.00 0.00 96 1012.3
20180925074606 64 0 0.0 0.0 0.00 0.00 0.00 96 1012.3
20180925074505 64 0 0.0 0.0 0.00 0.00 0.00 96 1012.4
20180925074407 63 194 0.0 0.0 0.00 0.00 0.00 96 1012.2
20180925074405 64 0 0.0 0.0 0.00 0.00 0.00 96 1012.4
20180925074305 64 0 0.0 0.0 0.00 0.00 0.00 96 1012.4
20180925074205 64 0 0.0 0.0 0.00 0.00 0.00 96 1012.4
20180925074105 64 0 0.0 0.0 0.00 0.00 0.00 96 1012.4
20180925074006 64 0 0.0 0.0 0.00 0.00 0.00 96 1012.4
20180925073905 64 0 0.0 0.0 0.00 0.00 0.00 96 1012.5
20180925073805 64 0 0.0 0.0 0.00 0.00 0.00 96 1012.5
20180925073705 64 0 0.0 0.0 0.00 0.00 0.00 96 1012.5
20180925073605 64 0 0.0 0.0 0.00 0.00 0.00 96 1012.5
20180925073505 64 0 0.0 0.0 0.00 0.00 0.00 97 1012.5
20180925073405 64 0 0.0 0.0 0.00 0.00 0.00 97 1012.5
20180925073305 64 0 0.0 0.0 0.00 0.00 0.00 97 1012.5
20180925073205 64 0 0.0 0.0 0.00 0.00 0.00 97 1012.6
20180925073105 64 0 0.0 0.0 0.00 0.00 0.00 97 1012.6
20180925073006 64 0 0.0 0.0 0.00 0.00 0.00 97 1012.6
20180925072905 64 0 0.0 0.0 0.00 0.00 0.00 97 1012.6
20180925072804 64 0 0.0 0.0 0.00 0.00 0.00 97 1012.7
20180925072705 64 0 0.0 0.0 0.00 0.00 0.00 97 1012.6
20180925072605 64 0 0.0 0.0 0.00 0.00 0.00 97 1012.7
20180925072506 64 0 0.0 0.0 0.00 0.00 0.00 97 1012.6
20180925072405 64 0 0.0 0.0 0.00 0.00 0.00 97 1012.7
20180925072403 63 194 0.0 0.0 0.00 0.00 0.00 97 1012.4
20180925072305 64 0 0.0 0.0 0.00 0.00 0.00 97 1012.6
20180925072205 64 0 0.0 0.0 0.00 0.00 0.00 97 1012.7
20180925072107 64 0 0.0 0.0 0.00 0.00 0.00 97 1012.6
20180925055305 63 0 0.0 0.0 0.00 0.00 0.00 95 1012.6
20180925055205 63 0 0.0 0.0 0.00 0.00 0.00 95 1012.6
20180925055105 63 0 0.0 0.0 0.00 0.00 0.00 95 1012.6
20180925055005 63 0 0.0 0.0 0.00 0.00 0.00 95 1012.6
20180925054905 63 0 0.0 0.0 0.00 0.00 0.00 95 1012.6
20180925054805 64 0 0.0 0.0 0.00 0.00 0.00 95 1012.6
20180925054705 64 0 0.0 0.0 0.00 0.00 0.00 95 1012.6
20180925054605 64 0 0.0 0.0 0.00 0.00 0.00 95 1012.6
20180925054504 64 0 0.0 0.0 0.00 0.00 0.00 95 1012.5
20180925054405 64 0 0.0 0.0 0.00 0.00 0.00 95 1012.6
20180925054304 64 0 0.0 0.0 0.00 0.00 0.00 95 1012.6
20180925054205 64 0 0.0 0.0 0.00 0.00 0.00 95 1012.6
20180925054104 64 0 0.0 0.0 0.00 0.00 0.00 95 1012.6
20180925054005 64 0 0.0 0.0 0.00 0.00 0.00 95 1012.6
20180925053905 63 194 0.0 0.0 0.00 0.00 0.00 94 1012.5
20180925053805 64 0 0.0 0.0 0.00 0.00 0.00 94 1012.7
20180925053705 64 0 0.0 0.0 0.00 0.00 0.00 94 1012.6
20180925053606 64 0 0.0 0.0 0.00 0.00 0.00 94 1012.6
20180925053505 64 0 0.0 0.0 0.00 0.00 0.00 94 1012.6
20180925053405 64 0 0.0 0.0 0.00 0.00 0.00 94 1012.6
20180925053305 64 0 0.0 0.0 0.00 0.00 0.00 94 1012.6
20180925053205 64 0 0.0 0.0 0.00 0.00 0.00 94 1012.6
20180925053105 64 0 0.0 0.0 0.00 0.00 0.00 94 1012.6
20180925053005 64 0 0.0 0.0 0.00 0.00 0.00 94 1012.6
20180925052904 64 0 0.0 0.0 0.00 0.00 0.00 94 1012.6
20180925052805 64 0 0.0 0.0 0.00 0.00 0.00 94 1012.7
20180925052705 64 0 0.0 0.0 0.00 0.00 0.00 94 1012.6
20180925052605 64 0 0.0 0.0 0.00 0.00 0.00 94 1012.7
20180925052506 64 0 0.0 0.0 0.00 0.00 0.00 94 1012.7
20180925052405 64 0 0.0 0.0 0.00 0.00 0.00 94 1012.6
20180925052305 64 0 0.0 0.0 0.00 0.00 0.00 94 1012.6
20180925052205 64 0 0.0 0.0 0.00 0.00 0.00 94 1012.6
20180925052105 64 0 0.0 0.0 0.00 0.00 0.00 94 1012.6
20180925052005 64 0 0.0 0.0 0.00 0.00 0.00 94 1012.6
20180925051905 64 0 0.0 0.0 0.00 0.00 0.00 94 1012.6
20180925051805 64 0 0.0 0.0 0.00 0.00 0.00 94 1012.6
20180925051705 64 0 0.0 0.0 0.00 0.00 0.00 94 1012.6
20180925051605 64 0 0.0 0.0 0.00 0.00 0.00 94 1012.7
20180925051505 64 0 0.0 0.0 0.00 0.00 0.00 94 1012.7
20180925051405 64 0 0.0 0.0 0.00 0.00 0.00 94 1012.7
20180925051305 65 0 0.0 0.0 0.00 0.00 0.00 94 1012.7
20180925051205 65 0 0.0 0.0 0.00 0.00 0.00 94 1012.7
20180925051105 65 0 0.0 0.0 0.00 0.00 0.00 94 1012.7
20180925051005 65 0 0.0 0.0 0.00 0.00 0.00 94 1012.7
20180925050905 65 0 0.0 0.0 0.00 0.00 0.00 94 1012.6
20180925050805 65 0 0.0 0.0 0.00 0.00 0.00 94 1012.6
20180925050705 65 0 0.0 0.0 0.00 0.00 0.00 94 1012.7
20180925050605 65 0 0.0 0.0 0.00 0.00 0.00 94 1012.7
20180925050505 65 0 0.0 0.0 0.00 0.00 0.00 94 1012.7
20180925050405 65 0 0.0 0.0 0.00 0.00 0.00 95 1012.7
20180925050305 65 0 0.0 0.0 0.00 0.00 0.00 95 1012.7
20180925050205 65 0 0.0 0.0 0.00 0.00 0.00 95 1012.7
20180925050105 65 0 0.0 0.0 0.00 0.00 0.00 95 1012.7
20180925050006 65 0 0.0 0.0 0.00 0.00 0.00 95 1012.7
20180925045905 65 0 0.0 0.0 0.00 0.00 0.00 95 1012.7
20180925045805 65 0 0.0 0.0 0.00 0.00 0.00 95 1012.7
20180925045704 65 0 0.0 0.0 0.00 0.00 0.00 94 1012.7
20180925045605 65 0 0.0 0.0 0.00 0.00 0.00 94 1012.7
20180925045505 65 0 0.0 0.0 0.00 0.00 0.00 94 1012.7
20180925045405 65 0 0.0 0.0 0.00 0.00 0.00 94 1012.7
20180925045304 65 0 0.0 0.0 0.00 0.00 0.00 94 1012.7
20180925045205 65 0 0.0 0.0 0.00 0.00 0.00 94 1012.7
20180925045105 65 0 0.0 0.0 0.00 0.00 0.00 94 1012.8
20180925045005 65 0 0.0 0.0 0.00 0.00 0.00 95 1012.8
20180925044905 65 0 0.0 0.0 0.00 0.00 0.00 95 1012.8
20180925044805 65 0 0.0 0.0 0.00 0.00 0.00 95 1012.8
20180925044705 65 0 0.0 0.0 0.00 0.00 0.00 95 1012.9
20180925044605 65 0 0.0 0.0 0.00 0.00 0.00 95 1012.8
20180925044504 65 0 0.0 0.0 0.00 0.00 0.00 94 1012.8
20180925044405 65 0 0.0 0.0 0.00 0.00 0.00 94 1012.8
20180925044306 65 182 0.0 0.0 0.00 0.00 0.00 94 1012.7
20180925044205 65 0 0.0 0.0 0.00 0.00 0.00 94 1012.8
20180925044105 65 0 0.0 0.0 0.00 0.00 0.00 94 1012.8
20180925044007 65 0 0.0 0.0 0.00 0.00 0.00 94 1012.8
20180925043905 65 0 0.0 0.0 0.00 0.00 0.00 94 1012.8
20180925043804 65 0 0.0 0.0 0.00 0.00 0.00 94 1012.8
20180925043705 65 0 0.0 0.0 0.00 0.00 0.00 94 1012.8
20180925043605 65 0 0.0 0.0 0.00 0.00 0.00 94 1012.9
20180925043508 65 0 0.0 0.0 0.00 0.00 0.00 94 1012.8
20180925043405 65 0 0.0 0.0 0.00 0.00 0.00 94 1012.8
20180925043305 65 0 0.0 0.0 0.00 0.00 0.00 94 1012.8
20180925043205 65 0 0.0 0.0 0.00 0.00 0.00 94 1012.8
20180925043105 65 0 0.0 0.0 0.00 0.00 0.00 94 1012.8
20180925043005 65 0 0.0 0.0 0.00 0.00 0.00 94 1012.8
20180925042905 65 0 0.0 0.0 0.00 0.00 0.00 94 1012.8
20180925042805 65 0 0.0 0.0 0.00 0.00 0.00 94 1012.8
20180925042705 65 0 0.0 0.0 0.00 0.00 0.00 94 1012.8
20180925042604 65 0 0.0 0.0 0.00 0.00 0.00 94 1012.8
20180925042506 65 0 0.0 0.0 0.00 0.00 0.00 94 1012.8
20180925042503 65 182 0.0 0.0 0.00 0.00 0.00 94 1012.7
20180925042405 65 0 0.0 0.0 0.00 0.00 0.00 94 1012.8
20180925042305 65 0 0.0 0.0 0.00 0.00 0.00 94 1012.8
20180925042205 65 0 0.0 0.0 0.00 0.00 0.00 94 1012.8
20180925042105 65 0 0.0 0.0 0.00 0.00 0.00 94 1012.9
20180925042005 65 0 0.0 0.0 0.00 0.00 0.00 94 1012.8
20180925041906 65 0 0.0 0.0 0.00 0.00 0.00 94 1012.9
20180925041805 65 0 0.0 0.0 0.00 0.00 0.00 94 1012.9
20180925041705 65 0 0.0 0.0 0.00 0.00 0.00 94 1012.9
20180925041605 65 0 0.0 0.0 0.00 0.00 0.00 94 1012.9
20180925041505 65 0 0.0 0.0 0.00 0.00 0.00 94 1012.9
20180925041405 65 0 0.0 0.0 0.00 0.00 0.00 94 1012.9
20180925041305 65 0 0.0 0.0 0.00 0.00 0.00 94 1013.0
20180925041204 65 0 0.0 0.0 0.00 0.00 0.00 94 1012.9
20180925041105 65 0 0.0 0.0 0.00 0.00 0.00 94 1012.9
20180925041005 65 0 0.0 0.0 0.00 0.00 0.00 94 1012.9
20180925040905 65 0 0.0 0.0 0.00 0.00 0.00 94 1012.9
20180925040805 65 0 0.0 0.0 0.00 0.00 0.00 94 1012.9
20180925040708 65 182 0.0 0.0 0.00 0.00 0.00 94 1012.7
20180925040705 65 0 0.0 0.0 0.00 0.00 0.00 94 1012.9
20180925040605 65 0 0.0 0.0 0.00 0.00 0.00 94 1012.9
20180925040505 65 0 0.0 0.0 0.00 0.00 0.00 94 1012.9
20180925040405 65 0 0.0 0.0 0.00 0.00 0.00 94 1012.9
20180925040305 65 0 0.0 0.0 0.00 0.00 0.00 94 1012.9
20180925040205 65 0 0.0 0.0 0.00 0.00 0.00 94 1012.9
20180925040105 65 0 0.0 0.0 0.00 0.00 0.00 94 1012.9
20180925040005 65 0 0.0 0.0 0.00 0.00 0.00 94 1012.9
20180925035905 65 0 0.0 0.0 0.00 0.00 0.00 94 1013.0
20180925035805 65 0 0.0 0.0 0.00 0.00 0.00 94 1013.0
20180925035705 65 0 0.0 0.0 0.00 0.00 0.00 94 1013.0
20180925035605 65 0 0.0 0.0 0.00 0.00 0.00 94 1013.0
20180925035507 65 0 0.0 0.0 0.00 0.00 0.00 94 1013.0
20180925035404 65 0 0.0 0.0 0.00 0.00 0.00 94 1013.0
20180925035305 65 0 0.0 0.0 0.00 0.00 0.00 94 1013.0
20180925035205 65 0 0.0 0.0 0.00 0.00 0.00 94 1013.0
20180925035105 65 0 0.0 0.0 0.00 0.00 0.00 94 1013.0
20180925035005 65 0 0.0 0.0 0.00 0.00 0.00 94 1013.0
20180925034907 65 182 0.0 0.0 0.00 0.00 0.00 94 1012.8
20180925034905 65 0 0.0 0.0 0.00 0.00 0.00 94 1013.1
20180925034805 65 0 0.0 0.0 0.00 0.00 0.00 94 1013.0
20180925034706 65 0 0.0 0.0 0.00 0.00 0.00 94 1013.0
20180925034605 65 0 0.0 0.0 0.00 0.00 0.00 94 1013.1
20180925034504 65 0 0.0 0.0 0.00 0.00 0.00 94 1013.0
20180925034405 65 0 0.0 0.0 0.00 0.00 0.00 94 1013.1
20180925034305 65 0 0.0 0.0 0.00 0.00 0.00 94 1013.0
20180925034205 65 0 0.0 0.0 0.00 0.00 0.00 94 1013.0
20180925034105 65 0 0.0 0.0 0.00 0.00 0.00 94 1013.1
20180925034006 65 0 0.0 0.0 0.00 0.00 0.00 94 1013.0
20180925033905 65 0 0.0 0.0 0.00 0.00 0.00 94 1013.0
20180925033804 65 0 0.0 0.0 0.00 0.00 0.00 94 1013.1
20180925033705 66 0 0.0 0.0 0.00 0.00 0.00 94 1013.1
20180925033605 65 0 0.0 0.0 0.00 0.00 0.00 94 1013.0
20180925033505 65 0 0.0 0.0 0.00 0.00 0.00 94 1013.1
20180925033404 65 0 0.0 0.0 0.00 0.00 0.00 94 1013.1
20180925033305 65 0 0.0 0.0 0.00 0.00 0.00 94 1013.1
20180925033206 65 0 0.0 0.0 0.00 0.00 0.00 94 1013.1
20180925033105 65 0 0.0 0.0 0.00 0.00 0.00 94 1013.1
20180925033005 65 0 0.0 0.0 0.00 0.00 0.00 94 1013.1
20180925032905 65 0 0.0 0.0 0.00 0.00 0.00 94 1013.1
20180925032903 65 182 0.0 0.0 0.00 0.00 0.00 94 1012.9
20180925032805 65 0 0.0 0.0 0.00 0.00 0.00 94 1013.0
20180925032705 65 0 0.0 0.0 0.00 0.00 0.00 94 1013.0
20180925032604 65 0 0.0 0.0 0.00 0.00 0.00 94 1013.0
20180925032506 65 0 0.0 0.0 0.00 0.00 0.00 94 1013.1
20180925032404 65 0 0.0 0.0 0.00 0.00 0.00 94 1013.1
20180925032305 65 0 0.0 0.0 0.00 0.00 0.00 94 1013.1
20180925032204 65 0 0.0 0.0 0.00 0.00 0.00 94 1013.1
20180925032105 65 0 0.0 0.0 0.00 0.00 0.00 94 1013.1
20180925032005 65 0 0.0 0.0 0.00 0.00 0.00 94 1013.1
20180925031905 65 0 0.0 0.0 0.00 0.00 0.00 94 1013.2
20180925031805 65 0 0.0 0.0 0.00 0.00 0.00 94 1013.2
20180925031704 65 0 0.0 0.0 0.00 0.00 0.00 94 1013.2
20180925031605 65 0 0.0 0.0 0.00 0.00 0.00 94 1013.2
20180925031505 65 0 0.0 0.0 0.00 0.00 0.00 94 1013.3
20180925031405 65 0 0.0 0.0 0.00 0.00 0.00 94 1013.3
20180925031305 65 0 0.0 0.0 0.00 0.00 0.00 94 1013.3
20180925031205 65 0 0.0 0.0 0.00 0.00 0.00 94 1013.3
20180925031105 65 0 0.0 0.0 0.00 0.00 0.00 94 1013.3
20180925031006 65 0 0.0 0.0 0.00 0.00 0.00 94 1013.3
20180925030905 65 0 0.0 0.0 0.00 0.00 0.00 94 1013.3
20180925030805 65 0 0.0 0.0 0.00 0.00 0.00 94 1013.3
20180925030705 65 181 0.0 2.0 0.00 0.00 0.00 94 1013.3
20180925030605 65 181 0.0 2.0 0.00 0.00 0.00 94 1013.3
20180925030504 65 181 0.0 2.0 0.00 0.00 0.00 94 1013.3
20180925030405 65 181 0.0 2.0 0.00 0.00 0.00 94 1013.3
20180925030304 65 181 0.0 2.0 0.00 0.00 0.00 94 1013.3
20180925030205 65 181 0.0 2.0 0.00 0.00 0.00 94 1013.3
20180925030104 65 181 0.0 3.0 0.00 0.00 0.00 94 1013.3
20180925030005 65 189 0.0 3.0 0.00 0.00 0.00 94 1013.3
20180925025905 65 197 0.0 3.0 0.00 0.00 0.00 94 1013.2
20180925025805 65 200 0.0 6.0 0.00 0.00 0.00 94 1013.2
20180925025705 65 200 0.0 6.0 0.00 0.00 0.00 94 1013.3
20180925025604 65 201 0.0 6.0 0.00 0.00 0.00 94 1013.3
20180925025505 65 201 0.0 6.0 0.00 0.00 0.00 94 1013.2
20180925025405 65 201 0.0 6.0 0.00 0.00 0.00 94 1013.2
20180925025307 64 181 0.0 4.0 0.00 0.00 0.00 94 1013.1
20180925025305 65 202 0.0 6.0 0.00 0.00 0.00 94 1013.2
20180925025205 65 202 0.0 6.0 0.00 0.00 0.00 94 1013.2
20180925025106 65 204 0.0 6.0 0.00 0.00 0.00 94 1013.2
20180925025005 65 211 0.0 6.0 0.00 0.00 0.00 94 1013.1
20180925024905 65 209 0.0 6.0 0.00 0.00 0.00 94 1013.1
20180925024805 65 0 0.0 0.0 0.00 0.00 0.00 94 1013.2
20180925024705 65 0 0.0 0.0 0.00 0.00 0.00 94 1013.2
20180925024604 65 0 0.0 0.0 0.00 0.00 0.00 94 1013.1
20180925024505 65 0 0.0 0.0 0.00 0.00 0.00 94 1013.1
20180925024404 65 0 0.0 0.0 0.00 0.00 0.00 94 1013.1
20180925024305 65 0 0.0 0.0 0.00 0.00 0.00 94 1013.1
20180925024205 65 0 0.0 0.0 0.00 0.00 0.00 94 1013.1
20180925024104 65 0 0.0 0.0 0.00 0.00 0.00 94 1013.1
20180925024006 65 0 0.0 0.0 0.00 0.00 0.00 94 1013.1
20180925023904 65 0 0.0 0.0 0.00 0.00 0.00 94 1013.1
20180925023805 65 0 0.0 0.0 0.00 0.00 0.00 94 1013.1
20180925023704 65 0 0.0 0.0 0.00 0.00 0.00 94 1013.1
20180925023605 65 0 0.0 0.0 0.00 0.00 0.00 94 1013.1
20180925023506 64 175 0.0 0.0 0.00 0.00 0.00 94 1013.0
20180925023405 65 0 0.0 0.0 0.00 0.00 0.00 94 1013.1
20180925023305 65 0 0.0 0.0 0.00 0.00 0.00 94 1013.2
20180925023205 65 0 0.0 0.0 0.00 0.00 0.00 94 1013.1
20180925023105 65 0 0.0 0.0 0.00 0.00 0.00 94 1013.1
20180925023005 65 0 0.0 0.0 0.00 0.00 0.00 94 1013.1
20180925022905 65 0 0.0 0.0 0.00 0.00 0.00 93 1013.2
20180925022805 65 0 0.0 0.0 0.00 0.00 0.00 93 1013.1
20180925022705 65 0 0.0 0.0 0.00 0.00 0.00 93 1013.1
20180925022605 65 0 0.0 0.0 0.00 0.00 0.00 93 1013.1
20180925022506 65 0 0.0 0.0 0.00 0.00 0.00 93 1013.1
20180925022404 65 0 0.0 0.0 0.00 0.00 0.00 93 1013.1
20180925022305 65 0 0.0 0.0 0.00 0.00 0.00 93 1013.1
20180925022204 65 0 0.0 0.0 0.00 0.00 0.00 93 1013.1
20180925022105 65 0 0.0 0.0 0.00 0.00 0.00 93 1013.1
20180925022004 65 0 0.0 0.0 0.00 0.00 0.00 93 1013.1
20180925021906 65 0 0.0 0.0 0.00 0.00 0.00 93 1013.1
20180925021805 65 0 0.0 0.0 0.00 0.00 0.00 93 1013.1
20180925021705 65 0 0.0 0.0 0.00 0.00 0.00 93 1013.1
20180925021703 64 173 0.0 0.0 0.00 0.00 0.00 93 1013.0
20180925021605 65 0 0.0 0.0 0.00 0.00 0.00 93 1013.1
20180925021505 65 0 0.0 0.0 0.00 0.00 0.00 93 1013.1
20180925021404 65 0 0.0 0.0 0.00 0.00 0.00 92 1013.1
20180925021305 65 0 0.0 0.0 0.00 0.00 0.00 92 1013.1
20180925021204 65 0 0.0 0.0 0.00 0.00 0.00 92 1013.1
20180925021105 65 0 0.0 0.0 0.00 0.00 0.00 92 1013.1
20180925021005 65 173 0.0 2.0 0.00 0.00 0.00 92 1013.1
20180925020905 65 173 0.0 2.0 0.00 0.00 0.00 93 1013.1
20180925020805 65 173 0.0 2.0 0.00 0.00 0.00 92 1013.1
20180925020705 65 173 0.0 2.0 0.00 0.00 0.00 92 1013.1
20180925020605 65 173 0.0 2.0 0.00 0.00 0.00 92 1013.1
20180925020504 65 173 0.0 2.0 0.00 0.00 0.00 92 1013.1
20180925020405 65 173 0.0 2.0 0.00 0.00 0.00 92 1013.1
20180925020305 65 173 0.0 2.0 0.00 0.00 0.00 92 1013.1
20180925020204 65 173 0.0 2.0 0.00 0.00 0.00 92 1013.1
20180925020105 65 173 0.0 2.0 0.00 0.00 0.00 92 1013.1
20180925020005 65 173 0.0 2.0 0.00 0.00 0.00 92 1013.1
20180925015904 65 173 0.0 2.0 0.00 0.00 0.00 92 1013.2
20180925015805 65 173 0.0 2.0 0.00 0.00 0.00 92 1013.1
20180925015704 65 173 0.0 2.0 0.00 0.00 0.00 92 1013.1
20180925015605 65 173 0.0 2.0 0.00 0.00 0.00 92 1013.2
20180925015507 66 173 0.0 2.0 0.00 0.00 0.00 92 1013.2
20180925015405 66 173 0.0 2.0 0.00 0.00 0.00 92 1013.1
20180925015304 66 173 0.0 2.0 0.00 0.00 0.00 92 1013.1
20180925015205 66 0 0.0 0.0 0.00 0.00 0.00 92 1013.1
20180925015104 66 0 0.0 0.0 0.00 0.00 0.00 92 1013.1
20180925015005 66 0 0.0 0.0 0.00 0.00 0.00 92 1013.1
20180925014904 66 0 0.0 0.0 0.00 0.00 0.00 92 1013.1
20180925014805 66 0 0.0 0.0 0.00 0.00 0.00 92 1013.1
20180925014705 66 0 0.0 0.0 0.00 0.00 0.00 92 1013.2
20180925014605 66 0 0.0 0.0 0.00 0.00 0.00 92 1013.1
20180925014505 66 0 0.0 0.0 0.00 0.00 0.00 91 1013.1
20180925014404 66 0 0.0 0.0 0.00 0.00 0.00 91 1013.1
20180925014305 66 0 0.0 0.0 0.00 0.00 0.00 91 1013.1
20180925014205 66 0 0.0 0.0 0.00 0.00 0.00 91 1013.1
20180925014105 66 0 0.0 0.0 0.00 0.00 0.00 91 1013.1
20180925014006 66 0 0.0 0.0 0.00 0.00 0.00 91 1013.2
20180925013907 66 173 0.0 0.0 0.00 0.00 0.00 91 1013.1
20180925013905 66 0 0.0 0.0 0.00 0.00 0.00 91 1013.2
20180925013805 66 0 0.0 0.0 0.00 0.00 0.00 91 1013.3
20180925013705 66 0 0.0 0.0 0.00 0.00 0.00 91 1013.3
20180925013605 66 0 0.0 0.0 0.00 0.00 0.00 91 1013.3
20180925013505 66 0 0.0 0.0 0.00 0.00 0.00 91 1013.3
20180925013404 66 0 0.0 0.0 0.00 0.00 0.00 91 1013.3
20180925013305 66 0 0.0 0.0 0.00 0.00 0.00 91 1013.2
20180925013205 66 0 0.0 0.0 0.00 0.00 0.00 91 1013.2
20180925013106 66 0 0.0 0.0 0.00 0.00 0.00 91 1013.2
20180925013004 66 0 0.0 0.0 0.00 0.00 0.00 91 1013.2
20180925012905 66 0 0.0 0.0 0.00 0.00 0.00 91 1013.2
20180925012804 66 0 0.0 0.0 0.00 0.00 0.00 91 1013.2
20180925012705 66 0 0.0 0.0 0.00 0.00 0.00 91 1013.2
20180925012604 66 0 0.0 0.0 0.00 0.00 0.00 91 1013.2
20180925012505 66 0 0.0 0.0 0.00 0.00 0.00 91 1013.2
20180925012405 66 0 0.0 0.0 0.00 0.00 0.00 90 1013.2
20180925012304 66 0 0.0 0.0 0.00 0.00 0.00 90 1013.2
20180925012205 67 0 0.0 0.0 0.00 0.00 0.00 90 1013.2
20180925012104 67 0 0.0 0.0 0.00 0.00 0.00 90 1013.2
20180925012005 67 0 0.0 0.0 0.00 0.00 0.00 90 1013.2
20180925011905 67 0 0.0 0.0 0.00 0.00 0.00 90 1013.2
20180925011804 67 0 0.0 0.0 0.00 0.00 0.00 90 1013.2
20180925011705 67 0 0.0 0.0 0.00 0.00 0.00 90 1013.2
20180925011604 67 0 0.0 0.0 0.00 0.00 0.00 90 1013.1
20180925011505 67 0 0.0 0.0 0.00 0.00 0.00 90 1013.2
20180925011405 67 0 0.0 0.0 0.00 0.00 0.00 90 1013.1
20180925011304 67 0 0.0 0.0 0.00 0.00 0.00 90 1013.1
20180925011205 67 0 0.0 0.0 0.00 0.00 0.00 90 1013.1
20180925011104 67 0 0.0 0.0 0.00 0.00 0.00 90 1013.1
20180925011006 67 0 0.0 0.0 0.00 0.00 0.00 90 1013.1
20180925010904 67 0 0.0 0.0 0.00 0.00 0.00 90 1013.1
20180925010805 67 0 0.0 0.0 0.00 0.00 0.00 90 1013.1
20180925010705 67 0 0.0 0.0 0.00 0.00 0.00 90 1013.1
20180925010605 67 0 0.0 0.0 0.00 0.00 0.00 90 1013.0
20180925010504 67 0 0.0 0.0 0.00 0.00 0.00 90 1013.0
20180925010405 67 0 0.0 0.0 0.00 0.00 0.00 90 1013.0
20180925010305 67 0 0.0 0.0 0.00 0.00 0.00 90 1013.0
20180925010205 67 0 0.0 0.0 0.00 0.00 0.00 90 1013.0
20180925010105 67 0 0.0 0.0 0.00 0.00 0.00 90 1013.0
20180925010004 67 0 0.0 0.0 0.00 0.00 0.00 90 1012.9
20180925005905 67 0 0.0 0.0 0.00 0.00 0.00 90 1012.9
20180925005804 67 0 0.0 0.0 0.00 0.00 0.00 90 1012.9
20180925005705 67 0 0.0 0.0 0.00 0.00 0.00 90 1012.9
20180925005605 67 0 0.0 0.0 0.00 0.00 0.00 90 1012.9
20180925005505 67 0 0.0 0.0 0.00 0.00 0.00 90 1012.9
20180925005405 67 0 0.0 0.0 0.00 0.00 0.00 90 1013.0
20180925005304 67 173 0.0 2.0 0.00 0.00 0.00 90 1013.0
20180925005205 67 173 0.0 2.0 0.00 0.00 0.00 90 1013.0
20180925005105 67 173 0.0 2.0 0.00 0.00 0.00 90 1013.0
20180925005004 67 173 0.0 2.0 0.00 0.00 0.00 90 1013.0
20180925004905 67 173 0.0 2.0 0.00 0.00 0.00 90 1013.0
20180925004805 67 173 0.0 2.0 0.00 0.00 0.00 90 1013.0
20180925004704 67 173 0.0 2.0 0.00 0.00 0.00 90 1013.0
20180925004605 67 173 0.0 2.0 0.00 0.00 0.00 90 1013.0
20180925004511 67 173 0.0 1.0 0.00 0.00 0.00 90 1012.9
20180925004504 67 173 0.0 2.0 0.00 0.00 0.00 90 1013.1
20180925004405 67 173 0.0 2.0 0.00 0.00 0.00 90 1013.0
20180925004304 67 0 0.0 0.0 0.00 0.00 0.00 90 1013.1
20180925004204 67 172 0.0 3.0 0.00 0.00 0.00 90 1013.1
20180925004104 67 172 0.0 3.0 0.00 0.00 0.00 90 1013.1
20180925004005 67 172 0.0 3.0 0.00 0.00 0.00 90 1013.0
20180925003905 67 172 0.0 3.0 0.00 0.00 0.00 90 1013.0
20180925003804 67 172 0.0 3.0 0.00 0.00 0.00 90 1013.0
20180925003705 67 172 0.0 3.0 0.00 0.00 0.00 90 1013.1
20180925003604 67 169 0.0 3.0 0.00 0.00 0.00 89 1013.1
20180925003505 67 167 0.0 3.0 0.00 0.00 0.00 89 1013.1
20180925003404 67 167 0.0 3.0 0.00 0.00 0.00 89 1013.1
20180925003305 67 167 0.0 3.0 0.00 0.00 0.00 89 1013.0
20180925003204 67 159 0.0 2.0 0.00 0.00 0.00 89 1013.0
20180925003105 67 159 0.0 2.0 0.00 0.00 0.00 89 1013.1
20180925003004 67 159 0.0 3.0 0.00 0.00 0.00 89 1013.0
20180925002905 67 162 0.0 6.0 0.00 0.00 0.00 89 1013.0
20180925002805 67 162 0.0 6.0 0.00 0.00 0.00 89 1013.0
20180925002706 67 160 0.0 3.0 0.00 0.00 0.00 89 1012.9
20180925002704 67 163 0.0 6.0 0.00 0.00 0.00 89 1013.0
20180925002605 67 164 0.0 6.0 0.00 0.00 0.00 89 1013.0
20180925002505 67 170 0.0 6.0 0.00 0.00 0.00 89 1012.9
20180925002405 67 170 0.0 6.0 0.00 0.00 0.00 89 1012.9
20180925002304 67 170 0.0 6.0 0.00 0.00 0.00 89 1012.9
20180925002205 67 175 1.0 6.0 0.00 0.00 0.00 89 1012.9
20180925002105 67 175 1.0 6.0 0.00 0.00 0.00 89 1012.8
20180925002004 67 179 1.0 6.0 0.00 0.00 0.00 89 1012.9
20180925001905 67 186 0.0 6.0 0.00 0.00 0.00 89 1012.9
20180925001804 67 186 0.0 6.0 0.00 0.00 0.00 89 1012.9
20180925001705 67 186 0.0 6.0 0.00 0.00 0.00 89 1012.9
20180925001605 67 186 0.0 6.0 0.00 0.00 0.00 89 1012.8
20180925001504 67 185 0.0 6.0 0.00 0.00 0.00 89 1012.8
20180925001405 67 185 0.0 6.0 0.00 0.00 0.00 89 1012.8
20180925001304 67 185 0.0 6.0 0.00 0.00 0.00 89 1012.9
20180925001205 67 0 0.0 0.0 0.00 0.00 0.00 89 1012.9
20180925001104 67 0 0.0 0.0 0.00 0.00 0.00 89 1012.9
20180925001005 67 0 0.0 0.0 0.00 0.00 0.00 89 1012.9
20180925000905 67 0 0.0 0.0 0.00 0.00 0.00 89 1012.8
20180925000804 67 0 0.0 0.0 0.00 0.00 0.00 89 1012.9
20180925000705 67 0 0.0 0.0 0.00 0.00 0.00 89 1012.9
20180925000604 67 0 0.0 0.0 0.00 0.00 0.00 89 1012.9
20180925000505 68 0 0.0 0.0 0.00 0.00 0.00 89 1012.9
20180925000405 68 0 0.0 0.0 0.00 0.00 0.00 89 1012.9
20180925000304 68 0 0.0 0.0 0.00 0.00 0.00 89 1012.9
20180925000205 68 0 0.0 0.0 0.00 0.00 0.00 89 1012.9
20180925000104 68 0 0.0 0.0 0.00 0.00 0.00 89 1012.9
20180925000005 68 0 0.0 0.0 0.00 0.00 0.00 89 1012.9
20180924235904 68 0 0.0 0.0 0.00 0.00 0.00 89 1013.0
20180924235805 68 0 0.0 0.0 0.00 0.00 0.00 89 1013.0
20180924235704 68 0 0.0 0.0 0.00 0.00 0.00 89 1013.0
20180924235605 68 0 0.0 0.0 0.00 0.00 0.00 89 1013.0
20180924235506 68 0 0.0 0.0 0.00 0.00 0.00 89 1013.0
20180924235405 68 0 0.0 0.0 0.00 0.00 0.00 89 1013.0
20180924235305 68 0 0.0 0.0 0.00 0.00 0.00 89 1013.1
20180924235204 68 0 0.0 0.0 0.00 0.00 0.00 89 1013.0
20180924235105 68 0 0.0 0.0 0.00 0.00 0.00 89 1013.0
20180924235004 68 173 0.0 2.0 0.00 0.00 0.00 89 1013.0
20180924234907 67 173 0.0 1.0 0.00 0.00 0.00 89 1012.9
20180924234905 68 173 0.0 2.0 0.00 0.00 0.00 89 1013.1
20180924234805 68 173 0.0 2.0 0.00 0.00 0.00 89 1013.1
20180924234705 68 173 0.0 2.0 0.00 0.00 0.00 89 1013.1
20180924234605 68 173 0.0 2.0 0.00 0.00 0.00 89 1013.1
20180924234505 68 173 0.0 2.0 0.00 0.00 0.00 89 1013.1
20180924234405 68 173 0.0 2.0 0.00 0.00 0.00 89 1013.1
20180924234304 68 173 0.0 2.0 0.00 0.00 0.00 89 1013.1
20180924234205 68 176 0.0 4.0 0.00 0.00 0.00 89 1013.1
20180924234105 68 179 0.0 4.0 0.00 0.00 0.00 89 1013.1
20180924234004 68 181 0.0 4.0 0.00 0.00 0.00 89 1013.1
20180924233905 68 181 0.0 4.0 0.00 0.00 0.00 89 1013.1
20180924233804 68 181 0.0 4.0 0.00 0.00 0.00 89 1013.1
20180924233705 68 181 0.0 4.0 0.00 0.00 0.00 89 1013.1
20180924233604 68 190 0.0 4.0 0.00 0.00 0.00 89 1013.1
20180924233505 68 198 1.0 4.0 0.00 0.00 0.00 89 1013.1
20180924233404 68 198 1.0 4.0 0.00 0.00 0.00 89 1013.1
20180924233305 68 191 1.0 4.0 0.00 0.00 0.00 89 1013.1
20180924233204 68 184 1.0 4.0 0.00 0.00 0.00 89 1013.0
20180924233105 68 178 1.0 4.0 0.00 0.00 0.00 88 1013.0
20180924233004 68 175 1.0 4.0 0.00 0.00 0.00 88 1013.0
20180924232905 68 169 1.0 4.0 0.00 0.00 0.00 88 1013.0
20180924232804 68 169 1.0 4.0 0.00 0.00 0.00 88 1013.0
20180924232704 68 169 1.0 4.0 0.00 0.00 0.00 88 1012.9
20180924232604 68 165 1.0 4.0 0.00 0.00 0.00 88 1012.9
20180924232506 68 147 1.0 4.0 0.00 0.00 0.00 88 1012.9
20180924232405 68 147 1.0 4.0 0.00 0.00 0.00 88 1012.9
20180924232304 68 146 1.0 4.0 0.00 0.00 0.00 88 1012.9
20180924232205 68 147 0.0 4.0 0.00 0.00 0.00 88 1013.0
20180924232104 68 147 0.0 4.0 0.00 0.00 0.00 88 1012.9
20180924232005 68 149 0.0 4.0 0.00 0.00 0.00 88 1012.9
20180924231904 68 170 0.0 4.0 0.00 0.00 0.00 88 1012.9
20180924231805 68 189 0.0 2.0 0.00 0.00 0.00 88 1012.9
20180924231704 68 189 0.0 2.0 0.00 0.00 0.00 88 1013.0
20180924231606 68 189 0.0 2.0 0.00 0.00 0.00 88 1013.0
20180924231504 68 189 0.0 2.0 0.00 0.00 0.00 88 1013.0
20180924231405 68 0 0.0 0.0 0.00 0.00 0.00 88 1013.0
20180924231305 67 285 0.0 0.0 0.00 0.00 0.00 88 1012.9
20180924231205 68 0 0.0 0.0 0.00 0.00 0.00 89 1013.1
20180924231104 68 0 0.0 0.0 0.00 0.00 0.00 88 1013.1
20180924231005 68 0 0.0 0.0 0.00 0.00 0.00 88 1013.1
20180924230904 68 0 0.0 0.0 0.00 0.00 0.00 88 1013.1
20180924230805 68 0 0.0 0.0 0.00 0.00 0.00 88 1013.1
20180924230704 68 0 0.0 0.0 0.00 0.00 0.00 88 1013.1
20180924230605 68 290 0.0 2.0 0.00 0.00 0.00 88 1013.0
20180924230504 68 290 0.0 3.0 0.00 0.00 0.00 88 1013.0
20180924230405 68 290 0.0 3.0 0.00 0.00 0.00 88 1013.1
20180924230304 68 290 0.0 3.0 0.00 0.00 0.00 88 1013.1
20180924230204 68 290 0.0 3.0 0.00 0.00 0.00 88 1013.2
20180924230105 68 290 0.0 3.0 0.00 0.00 0.00 88 1013.2
20180924230005 68 290 0.0 3.0 0.00 0.00 0.00 88 1013.2
20180924225905 68 294 0.0 3.0 0.00 0.00 0.00 88 1013.2
20180924225804 68 300 0.0 3.0 0.00 0.00 0.00 88 1013.2
20180924225705 68 7 0.0 3.0 0.00 0.00 0.00 88 1013.2
20180924225604 68 30 0.0 3.0 0.00 0.00 0.00 88 1013.2
20180924225506 68 54 0.0 3.0 0.00 0.00 0.00 88 1013.2
20180924225404 68 54 0.0 3.0 0.00 0.00 0.00 88 1013.2
20180924225305 68 54 0.0 3.0 0.00 0.00 0.00 88 1013.1
20180924225205 68 54 0.0 3.0 0.00 0.00 0.00 88 1013.1
20180924225104 68 54 0.0 3.0 0.00 0.00 0.00 88 1013.2
20180924225005 68 80 0.0 3.0 0.00 0.00 0.00 88 1013.2
20180924224904 68 125 1.0 3.0 0.00 0.00 0.00 88 1013.1
20180924224805 68 139 1.0 6.0 0.00 0.00 0.00 88 1013.2
20180924224704 68 145 1.0 6.0 0.00 0.00 0.00 88 1013.1
20180924224604 68 166 1.0 6.0 0.00 0.00 0.00 88 1013.1
20180924224504 68 170 1.0 6.0 0.00 0.00 0.00 88 1013.2
20180924224404 68 170 1.0 6.0 0.00 0.00 0.00 87 1013.2
20180924224304 68 172 1.0 6.0 0.00 0.00 0.00 87 1013.2
20180924224204 68 178 1.0 6.0 0.00 0.00 0.00 87 1013.2
20180924224104 68 183 1.0 6.0 0.00 0.00 0.00 87 1013.2
20180924224004 68 185 1.0 6.0 0.00 0.00 0.00 87 1013.2
20180924223904 68 181 1.0 6.0 0.00 0.00 0.00 87 1013.1
20180924223804 68 185 1.0 6.0 0.00 0.00 0.00 87 1013.1
20180924223705 68 190 1.0 6.0 0.00 0.00 0.00 87 1013.2
20180924223604 68 182 1.0 6.0 0.00 0.00 0.00 88 1013.2
20180924223505 68 182 1.0 6.0 0.00 0.00 0.00 88 1013.1
20180924223503 68 207 0.0 3.0 0.00 0.00 0.00 88 1013.0
20180924223404 68 182 1.0 6.0 0.00 0.00 0.00 87 1013.2
20180924223305 68 181 1.0 6.0 0.00 0.00 0.00 87 1013.2
20180924223204 68 175 1.0 6.0 0.00 0.00 0.00 87 1013.2
20180924223105 68 163 0.0 6.0 0.00 0.00 0.00 87 1013.1
20180924223004 68 159 0.0 6.0 0.00 0.00 0.00 88 1013.1
20180924222905 68 0 0.0 0.0 0.00 0.00 0.00 88 1013.1
20180924222804 68 228 0.0 2.0 0.00 0.00 0.00 87 1013.1
20180924222704 68 228 0.0 2.0 0.00 0.00 0.00 87 1013.2
20180924222604 68 228 0.0 2.0 0.00 0.00 0.00 87 1013.2
20180924222505 68 222 0.0 3.0 0.00 0.00 0.00 88 1013.3
20180924222405 68 189 0.0 3.0 0.00 0.00 0.00 88 1013.2
20180924222304 68 187 0.0 3.0 0.00 0.00 0.00 88 1013.2
20180924222204 68 187 0.0 3.0 0.00 0.00 0.00 88 1013.2
20180924222104 68 187 0.0 3.0 0.00 0.00 0.00 87 1013.2
20180924222005 68 178 1.0 3.0 0.00 0.00 0.00 87 1013.2
20180924221904 69 178 1.0 3.0 0.00 0.00 0.00 87 1013.2
20180924221804 69 163 0.0 3.0 0.00 0.00 0.00 87 1013.2
20180924221725 68 227 0.0 3.0 0.00 0.00 0.00 87 1013.0
20180924221704 69 161 0.0 3.0 0.00 0.00 0.00 87 1013.3
20180924221605 69 156 0.0 3.0 0.00 0.00 0.00 87 1013.3
20180924221504 69 128 0.0 3.0 0.00 0.00 0.00 87 1013.3
20180924221405 69 127 0.0 2.0 0.00 0.00 0.00 87 1013.2
20180924221304 69 127 0.0 2.0 0.00 0.00 0.00 87 1013.3
20180924221204 69 127 0.0 2.0 0.00 0.00 0.00 87 1013.3
20180924221104 69 127 0.0 2.0 0.00 0.00 0.00 87 1013.3
20180924221005 69 133 0.0 4.0 0.00 0.00 0.00 86 1013.3
20180924220904 69 143 0.0 8.0 0.00 0.00 0.00 86 1013.3
20180924220804 69 143 0.0 8.0 0.00 0.00 0.00 86 1013.2
20180924220704 69 147 0.0 8.0 0.00 0.00 0.00 86 1013.3
20180924220604 69 147 0.0 8.0 0.00 0.00 0.00 86 1013.3
20180924220507 69 147 0.0 8.0 0.00 0.00 0.00 86 1013.3
20180924220404 69 147 0.0 8.0 0.00 0.00 0.00 86 1013.3
20180924220304 69 148 0.0 8.0 0.00 0.00 0.00 86 1013.2
20180924220204 69 169 1.0 8.0 0.00 0.00 0.00 86 1013.2
20180924220104 69 175 1.0 8.0 0.00 0.00 0.00 85 1013.2
20180924220005 69 191 1.0 9.0 0.00 0.00 0.00 85 1013.3
20180924215904 69 197 1.0 9.0 0.00 0.00 0.00 85 1013.3
20180924215805 69 197 1.0 9.0 0.00 0.00 0.00 85 1013.3
20180924215704 69 198 1.0 9.0 0.00 0.00 0.00 85 1013.4
20180924215605 69 198 1.0 9.0 0.00 0.00 0.00 85 1013.3
20180924215504 69 198 1.0 9.0 0.00 0.00 0.00 85 1013.3
20180924215404 69 198 1.0 9.0 0.00 0.00 0.00 85 1013.3
20180924215304 69 198 1.0 9.0 0.00 0.00 0.00 85 1013.3
20180924215203 69 198 1.0 9.0 0.00 0.00 0.00 85 1013.3
20180924215104 69 194 1.0 9.0 0.00 0.00 0.00 85 1013.3
20180924215004 69 181 0.0 4.0 0.00 0.00 0.00 85 1013.3
20180924214904 69 0 0.0 0.0 0.00 0.00 0.00 85 1013.3
20180924214805 69 0 0.0 0.0 0.00 0.00 0.00 85 1013.2
20180924214704 69 0 0.0 0.0 0.00 0.00 0.00 84 1013.3
20180924214110 69 342 0.0 6.0 0.00 0.00 0.00 84 1013.0
20180924213805 70 257 0.0 6.0 0.00 0.00 0.00 84 1013.2
20180924213706 70 215 0.0 6.0 0.00 0.00 0.00 84 1013.2
20180924213605 70 168 0.0 2.0 0.00 0.00 0.00 84 1013.2
20180924213505 70 168 0.0 2.0 0.00 0.00 0.00 84 1013.2
20180924213405 70 168 0.0 2.0 0.00 0.00 0.00 84 1013.2
20180924213306 70 166 0.0 2.0 0.00 0.00 0.00 84 1013.2
20180924213206 70 0 0.0 0.0 0.00 0.00 0.00 84 1013.2
20180924213105 70 0 0.0 0.0 0.00 0.00 0.00 83 1013.2
20180924213005 70 176 0.0 3.0 0.00 0.00 0.00 84 1013.2
20180924212905 70 176 0.0 3.0 0.00 0.00 0.00 83 1013.2
20180924212806 70 176 0.0 4.0 0.00 0.00 0.00 83 1013.2
20180924212706 70 176 0.0 4.0 0.00 0.00 0.00 83 1013.2
20180924212605 70 176 0.0 4.0 0.00 0.00 0.00 82 1013.2
20180924212505 70 175 0.0 4.0 0.00 0.00 0.00 82 1013.2
20180924212407 70 171 0.0 3.0 0.00 0.00 0.00 82 1013.0
20180924212405 70 162 0.0 4.0 0.00 0.00 0.00 82 1013.2
20180924212306 70 162 0.0 4.0 0.00 0.00 0.00 82 1013.2
20180924212206 70 162 0.0 4.0 0.00 0.00 0.00 82 1013.2
20180924212105 71 161 0.0 4.0 0.00 0.00 0.00 81 1013.2
20180924212006 71 126 1.0 4.0 0.00 0.00 0.00 81 1013.2
20180924211906 71 87 1.0 4.0 0.00 0.00 0.00 81 1013.2
20180924211806 71 102 1.0 8.0 0.00 0.00 0.00 81 1013.2
20180924211705 71 137 1.0 8.0 0.00 0.00 0.00 80 1013.2
20180924211605 71 172 2.0 12.0 0.00 0.00 0.00 80 1013.2
20180924211506 71 183 2.0 12.0 0.00 0.00 0.00 80 1013.2
20180924211406 71 188 2.0 12.0 0.00 0.00 0.00 79 1013.2
20180924211305 71 185 2.0 12.0 0.00 0.00 0.00 80 1013.2
20180924211205 71 183 2.0 12.0 0.00 0.00 0.00 79 1013.2
20180924211106 71 178 3.0 12.0 0.00 0.00 0.00 79 1013.3
20180924211006 72 174 3.0 12.0 0.00 0.00 0.00 79 1013.2
20180924210905 72 179 3.0 12.0 0.00 0.00 0.00 78 1013.2
20180924210805 72 170 3.0 12.0 0.00 0.00 0.00 78 1013.2
20180924210706 72 166 2.0 12.0 0.00 0.00 0.00 78 1013.2
20180924210606 72 142 2.0 10.0 0.00 0.00 0.00 78 1013.2
20180924210604 71 217 2.0 6.0 0.00 0.00 0.00 78 1013.0
20180924210506 72 126 2.0 10.0 0.00 0.00 0.00 78 1013.3
20180924210405 72 68 2.0 10.0 0.00 0.00 0.00 78 1013.2
20180924210305 72 62 2.0 10.0 0.00 0.00 0.00 77 1013.2
20180924210206 72 66 2.0 10.0 0.00 0.00 0.00 78 1013.2
20180924210106 72 89 2.0 10.0 0.00 0.00 0.00 78 1013.3
20180924210005 72 126 1.0 8.0 0.00 0.00 0.00 77 1013.2
20180924205905 72 118 1.0 8.0 0.00 0.00 0.00 77 1013.2
20180924205806 72 62 1.0 6.0 0.00 0.00 0.00 78 1013.2
20180924205706 72 65 1.0 6.0 0.00 0.00 0.00 77 1013.2
20180924205606 72 66 1.0 6.0 0.00 0.00 0.00 77 1013.2
20180924205506 72 102 2.0 8.0 0.00 0.00 0.00 77 1013.1
20180924205406 72 102 2.0 8.0 0.00 0.00 0.00 76 1013.2
20180924205305 73 141 2.0 8.0 0.00 0.00 0.00 77 1013.1
20180924205206 73 169 2.0 8.0 0.00 0.00 0.00 76 1013.2
20180924205105 73 177 2.0 8.0 0.00 0.00 0.00 76 1013.2
20180924205006 73 182 2.0 8.0 0.00 0.00 0.00 76 1013.2
20180924204905 73 185 2.0 8.0 0.00 0.00 0.00 76 1013.2
20180924204806 73 195 2.0 8.0 0.00 0.00 0.00 76 1013.2
20180924204706 73 204 2.0 8.0 0.00 0.00 0.00 76 1013.2
20180924204606 73 200 2.0 8.0 0.00 0.00 0.00 74 1013.2
20180924204506 73 203 2.0 8.0 0.00 0.00 0.00 74 1013.1
20180924204405 73 196 3.0 12.0 0.00 0.00 0.00 74 1013.1
20180924204306 73 190 3.0 12.0 0.00 0.00 0.00 74 1013.1
20180924204205 73 187 3.0 12.0 0.00 0.00 0.00 74 1013.1
20180924204106 73 183 2.0 12.0 0.00 0.00 0.00 74 1013.1
20180924204007 74 179 2.0 12.0 0.00 0.00 0.00 74 1013.1
20180924203905 74 177 2.0 12.0 0.00 0.00 0.00 73 1013.1
20180924203806 74 170 2.0 12.0 0.00 0.00 0.00 72 1013.1
20180924203705 74 164 2.0 12.0 0.00 0.00 0.00 72 1013.1
20180924203606 74 163 2.0 12.0 0.00 0.00 0.00 72 1013.1
20180924203506 74 164 2.0 12.0 0.00 0.00 0.00 71 1013.2
20180924203405 74 159 2.0 8.0 0.00 0.00 0.00 72 1013.2
20180924203306 74 158 2.0 8.0 0.00 0.00 0.00 72 1013.1
20180924203208 74 149 2.0 8.0 0.00 0.00 0.00 72 1013.1
20180924203106 74 151 2.0 8.0 0.00 0.00 0.00 72 1013.1
20180924203006 74 154 2.0 12.0 0.00 0.00 0.00 71 1013.1
20180924202906 74 160 2.0 12.0 0.00 0.00 0.00 70 1013.1
20180924202805 74 144 1.0 8.0 0.00 0.00 0.00 70 1012.9
20180924202706 74 173 2.0 12.0 0.00 0.00 0.00 69 1013.0
20180924202606 75 181 2.0 12.0 0.00 0.00 0.00 70 1013.1
20180924202506 75 178 2.0 12.0 0.00 0.00 0.00 68 1013.1
20180924202406 75 175 1.0 12.0 0.00 0.00 0.00 70 1013.1
20180924202306 75 187 2.0 12.0 0.00 0.00 0.00 70 1013.1
20180924202205 75 191 2.0 12.0 0.00 0.00 0.00 69 1013.1
20180924202106 75 196 2.0 12.0 0.00 0.00 0.00 69 1013.1
20180924202005 75 203 2.0 8.0 0.00 0.00 0.00 70 1013.1
20180924201905 75 217 1.0 8.0 0.00 0.00 0.00 68 1013.1
20180924201806 75 231 1.0 8.0 0.00 0.00 0.00 71 1013.2
20180924201706 75 232 1.0 8.0 0.00 0.00 0.00 70 1013.2
20180924201606 75 232 1.0 8.0 0.00 0.00 0.00 69 1013.1
20180924201506 75 232 1.0 8.0 0.00 0.00 0.00 68 1013.1
20180924201406 75 242 1.0 8.0 0.00 0.00 0.00 68 1013.1
20180924201306 75 331 0.0 8.0 0.00 0.00 0.00 69 1013.2
20180924201206 75 231 0.0 8.0 0.00 0.00 0.00 69 1013.2
20180924201106 75 227 0.0 2.0 0.00 0.00 0.00 69 1013.1
20180924201007 75 288 0.0 1.0 0.00 0.00 0.00 68 1013.0
20180924200906 75 228 0.0 4.0 0.00 0.00 0.00 68 1013.2
20180924200805 75 230 0.0 4.0 0.00 0.00 0.00 68 1013.3
20180924200706 75 237 1.0 4.0 0.00 0.00 0.00 69 1013.3
20180924200606 75 240 1.0 4.0 0.00 0.00 0.00 68 1013.3
20180924200506 75 252 1.0 4.0 0.00 0.00 0.00 68 1013.3
20180924200406 75 263 1.0 4.0 0.00 0.00 0.00 68 1013.3
20180924200305 75 263 1.0 4.0 0.00 0.00 0.00 69 1013.2
20180924200206 75 268 1.0 4.0 0.00 0.00 0.00 68 1013.3
20180924200105 75 279 1.0 4.0 0.00 0.00 0.00 68 1013.3
20180924200006 75 302 1.0 4.0 0.00 0.00 0.00 69 1013.3
20180924195906 75 332 1.0 4.0 0.00 0.00 0.00 69 1013.4
20180924195806 75 357 1.0 4.0 0.00 0.00 0.00 68 1013.3
20180924195706 75 32 1.0 4.0 0.00 0.00 0.00 68 1013.4
20180924195606 75 39 1.0 8.0 0.00 0.00 0.00 68 1013.3
20180924195505 75 49 1.0 8.0 0.00 0.00 0.00 67 1013.3
20180924195406 75 84 1.0 10.0 0.00 0.00 0.00 67 1013.3
20180924195305 75 84 1.0 10.0 0.00 0.00 0.00 67 1013.3
20180924195206 75 88 1.0 10.0 0.00 0.00 0.00 67 1013.3
20180924195105 75 97 1.0 10.0 0.00 0.00 0.00 67 1013.4
20180924195006 76 98 1.0 10.0 0.00 0.00 0.00 66 1013.4
20180924194906 76 100 1.0 10.0 0.00 0.00 0.00 66 1013.5
20180924194806 76 129 1.0 10.0 0.00 0.00 0.00 64 1013.5
20180924194706 76 153 1.0 10.0 0.00 0.00 0.00 65 1013.5
20180924194605 76 187 1.0 10.0 0.00 0.00 0.00 65 1013.5
20180924194506 76 179 1.0 10.0 0.00 0.00 0.00 66 1013.5
20180924194405 76 153 1.0 4.0 0.00 0.00 0.00 67 1013.5
20180924194305 76 154 1.0 4.0 0.00 0.00 0.00 66 1013.5
20180924194206 76 152 1.0 4.0 0.00 0.00 0.00 67 1013.5
20180924194105 76 155 1.0 6.0 0.00 0.00 0.00 68 1013.5
20180924194005 76 154 1.0 8.0 0.00 0.00 0.00 65 1013.5
20180924193906 76 146 1.0 8.0 0.00 0.00 0.00 64 1013.5
20180924193805 76 140 1.0 8.0 0.00 0.00 0.00 66 1013.6
20180924193707 76 136 1.0 8.0 0.00 0.00 0.00 65 1013.6
20180924193606 76 136 1.0 8.0 0.00 0.00 0.00 65 1013.6
20180924193506 76 117 1.0 8.0 0.00 0.00 0.00 65 1013.6
20180924193406 76 153 0.0 6.0 0.00 0.00 0.00 66 1013.5
20180924193306 76 58 1.0 8.0 0.00 0.00 0.00 66 1013.7
20180924193205 76 53 1.0 8.0 0.00 0.00 0.00 65 1013.7
20180924193106 76 51 2.0 8.0 0.00 0.00 0.00 65 1013.7
20180924193006 76 47 2.0 8.0 0.00 0.00 0.00 64 1013.7
20180924192905 76 58 2.0 8.0 0.00 0.00 0.00 64 1013.7
20180924192806 76 69 2.0 8.0 0.00 0.00 0.00 65 1013.7
20180924192705 76 74 2.0 8.0 0.00 0.00 0.00 63 1013.7
20180924192606 77 86 2.0 8.0 0.00 0.00 0.00 65 1013.8
20180924192505 77 108 2.0 8.0 0.00 0.00 0.00 62 1013.8
20180924192406 77 111 2.0 8.0 0.00 0.00 0.00 62 1013.9
20180924192306 77 111 2.0 8.0 0.00 0.00 0.00 64 1013.9
20180924192205 77 100 2.0 8.0 0.00 0.00 0.00 62 1014.0
20180924192105 77 62 3.0 12.0 0.00 0.00 0.00 62 1014.0
20180924192006 77 74 3.0 12.0 0.00 0.00 0.00 63 1013.9
20180924191905 77 70 2.0 12.0 0.00 0.00 0.00 61 1014.0
20180924191805 77 70 2.0 12.0 0.00 0.00 0.00 63 1014.0
20180924191706 77 85 3.0 12.0 0.00 0.00 0.00 61 1014.0
20180924191649 77 190 1.0 7.0 0.00 0.00 0.00 62 1013.9
20180924191606 78 80 2.0 12.0 0.00 0.00 0.00 62 1014.1
20180924191506 78 77 2.0 12.0 0.00 0.00 0.00 62 1014.1
20180924191405 78 75 2.0 12.0 0.00 0.00 0.00 60 1014.1
20180924191306 78 107 3.0 12.0 0.00 0.00 0.00 62 1014.2
20180924191205 78 164 2.0 12.0 0.00 0.00 0.00 63 1014.1
20180924191106 78 192 1.0 6.0 0.00 0.00 0.00 62 1014.2
20180924191006 78 197 1.0 6.0 0.00 0.00 0.00 63 1014.2
20180924190906 78 206 1.0 6.0 0.00 0.00 0.00 64 1014.2
20180924190805 78 231 2.0 6.0 0.00 0.00 0.00 60 1014.2
20180924190706 78 282 2.0 9.0 0.00 0.00 0.00 62 1014.2
20180924190605 78 256 2.0 9.0 0.00 0.00 0.00 59 1014.2
20180924190506 78 245 2.0 9.0 0.00 0.00 0.00 59 1014.2
20180924190406 78 211 2.0 9.0 0.00 0.00 0.00 61 1014.2
20180924190306 78 204 2.0 9.0 0.00 0.00 0.00 62 1014.2
20180924190206 78 196 2.0 9.0 0.00 0.00 0.00 61 1014.3
20180924190105 78 186 2.0 9.0 0.00 0.00 0.00 61 1014.4
20180924190006 78 169 2.0 9.0 0.00 0.00 0.00 61 1014.4
20180924185905 78 156 2.0 9.0 0.00 0.00 0.00 60 1014.4
20180924185806 78 132 2.0 9.0 0.00 0.00 0.00 61 1014.4
20180924185706 78 165 2.0 9.0 0.00 0.00 0.00 60 1014.5
20180924185606 78 148 2.0 9.0 0.00 0.00 0.00 60 1014.4
20180924185506 78 122 2.0 9.0 0.00 0.00 0.00 60 1014.5
20180924185405 78 91 1.0 9.0 0.00 0.00 0.00 60 1014.5
20180924185306 78 51 1.0 4.0 0.00 0.00 0.00 60 1014.6
20180924185205 78 24 1.0 4.0 0.00 0.00 0.00 62 1014.6
20180924185106 78 14 1.0 4.0 0.00 0.00 0.00 61 1014.6
20180924185006 78 359 1.0 4.0 0.00 0.00 0.00 61 1014.7
20180924184906 78 355 0.0 4.0 0.00 0.00 0.00 59 1014.7
20180924184806 78 226 0.0 4.0 0.00 0.00 0.00 60 1014.8
20180924184706 78 208 1.0 6.0 0.00 0.00 0.00 60 1014.7
20180924184606 78 207 1.0 6.0 0.00 0.00 0.00 61 1014.8
20180924184507 78 206 1.0 8.0 0.00 0.00 0.00 62 1014.8
20180924184405 78 204 1.0 8.0 0.00 0.00 0.00 63 1014.8
20180924184306 78 203 2.0 8.0 0.00 0.00 0.00 61 1014.8
20180924184206 77 204 2.0 8.0 0.00 0.00 0.00 58 1014.8
20180924184105 78 212 2.0 8.0 0.00 0.00 0.00 60 1014.9
20180924184006 78 215 2.0 8.0 0.00 0.00 0.00 64 1014.9
20180924183905 78 223 2.0 8.0 0.00 0.00 0.00 62 1015.0
20180924183806 77 188 1.0 5.0 0.00 0.00 0.00 59 1014.8
20180924183705 78 245 2.0 8.0 0.00 0.00 0.00 59 1015.0
20180924183606 78 233 2.0 12.0 0.00 0.00 0.00 59 1015.0
20180924183505 78 237 2.0 12.0 0.00 0.00 0.00 59 1015.0
20180924183406 78 242 2.0 12.0 0.00 0.00 0.00 59 1015.1
20180924183305 78 243 2.0 12.0 0.00 0.00 0.00 58 1015.1
20180924183206 78 245 2.0 12.0 0.00 0.00 0.00 59 1015.2
20180924183106 78 241 2.0 12.0 0.00 0.00 0.00 58 1015.2
20180924183006 78 241 2.0 12.0 0.00 0.00 0.00 59 1015.1
20180924182906 78 226 1.0 12.0 0.00 0.00 0.00 58 1015.2
20180924182805 78 211 2.0 12.0 0.00 0.00 0.00 58 1015.3
20180924182706 78 211 1.0 12.0 0.00 0.00 0.00 56 1015.3
20180924182605 78 226 1.0 9.0 0.00 0.00 0.00 58 1015.3
20180924182506 78 226 1.0 9.0 0.00 0.00 0.00 57 1015.3
20180924182405 77 227 1.0 9.0 0.00 0.00 0.00 58 1015.3
20180924182306 77 220 1.0 9.0 0.00 0.00 0.00 59 1015.3
20180924182205 77 217 1.0 9.0 0.00 0.00 0.00 60 1015.4
20180924182105 77 217 1.0 9.0 0.00 0.00 0.00 58 1015.4
20180924182009 77 207 1.0 6.0 0.00 0.00 0.00 61 1015.3
20180924182006 77 216 1.0 9.0 0.00 0.00 0.00 61 1015.4
20180924181906 77 213 2.0 9.0 0.00 0.00 0.00 59 1015.4
20180924181806 77 222 1.0 4.0 0.00 0.00 0.00 58 1015.4
20180924181705 77 238 2.0 8.0 0.00 0.00 0.00 62 1015.5
20180924181606 77 249 2.0 8.0 0.00 0.00 0.00 59 1015.4
20180924181505 77 256 2.0 8.0 0.00 0.00 0.00 57 1015.4
20180924181406 77 260 2.0 8.0 0.00 0.00 0.00 56 1015.4
20180924181305 77 268 2.0 8.0 0.00 0.00 0.00 59 1015.5
20180924181206 77 295 2.0 8.0 0.00 0.00 0.00 59 1015.5
20180924181105 77 296 2.0 8.0 0.00 0.00 0.00 58 1015.5
20180924181008 77 327 2.0 8.0 0.00 0.00 0.00 55 1015.5
20180924180905 77 351 2.0 8.0 0.00 0.00 0.00 55 1015.5
20180924180806 77 1 2.0 8.0 0.00 0.00 0.00 55 1015.6
20180924180705 77 21 1.0 6.0 0.00 0.00 0.00 58 1015.6
20180924180606 77 20 1.0 6.0 0.00 0.00 0.00 58 1015.6
20180924180506 77 20 1.0 6.0 0.00 0.00 0.00 57 1015.7
20180924180405 77 20 1.0 6.0 0.00 0.00 0.00 57 1015.7
20180924180306 77 18 1.0 6.0 0.00 0.00 0.00 55 1015.8
20180924180210 76 19 1.0 4.0 0.00 0.00 0.00 56 1015.6
20180924180205 77 16 1.0 6.0 0.00 0.00 0.00 56 1015.8
20180924180106 77 12 1.0 6.0 0.00 0.00 0.00 56 1015.8
20180924180005 77 9 1.0 6.0 0.00 0.00 0.00 57 1015.8
20180924175905 77 1 1.0 6.0 0.00 0.00 0.00 58 1015.8
20180924175806 77 355 1.0 4.0 0.00 0.00 0.00 58 1015.9
20180924175705 77 355 1.0 4.0 0.00 0.00 0.00 57 1015.9
20180924175606 77 358 1.0 4.0 0.00 0.00 0.00 56 1015.9
20180924175505 77 6 1.0 4.0 0.00 0.00 0.00 56 1016.0
20180924175406 76 7 1.0 4.0 0.00 0.00 0.00 59 1015.9
20180924175306 76 8 1.0 4.0 0.00 0.00 0.00 57 1015.9
20180924175205 76 8 1.0 4.0 0.00 0.00 0.00 58 1016.0
20180924175106 76 10 1.0 4.0 0.00 0.00 0.00 58 1016.0
20180924175006 76 11 1.0 4.0 0.00 0.00 0.00 54 1016.0
20180924174906 76 16 1.0 4.0 0.00 0.00 0.00 56 1016.0
20180924174805 76 17 1.0 4.0 0.00 0.00 0.00 54 1016.1
20180924174706 76 30 0.0 4.0 0.00 0.00 0.00 55 1016.1
20180924174605 76 31 0.0 4.0 0.00 0.00 0.00 54 1016.1
20180924174506 76 254 0.0 4.0 0.00 0.00 0.00 55 1016.1
20180924174405 76 272 0.0 4.0 0.00 0.00 0.00 57 1016.1
20180924174306 76 290 1.0 4.0 0.00 0.00 0.00 58 1016.1
20180924174205 76 294 1.0 4.0 0.00 0.00 0.00 57 1016.2
20180924174106 76 297 1.0 4.0 0.00 0.00 0.00 57 1016.2
20180924174006 76 282 1.0 6.0 0.00 0.00 0.00 56 1016.2
20180924173905 76 277 2.0 8.0 0.00 0.00 0.00 56 1016.2
20180924173806 76 262 2.0 8.0 0.00 0.00 0.00 58 1016.3
20180924173705 76 264 2.0 8.0 0.00 0.00 0.00 61 1016.2
20180924173606 76 266 2.0 8.0 0.00 0.00 0.00 59 1016.3
20180924173506 76 279 2.0 8.0 0.00 0.00 0.00 57 1016.2
20180924173405 76 291 2.0 8.0 0.00 0.00 0.00 58 1016.3
20180924173306 76 299 2.0 8.0 0.00 0.00 0.00 59 1016.2
20180924173205 76 316 2.0 8.0 0.00 0.00 0.00 55 1016.2
20180924173106 76 323 2.0 8.0 0.00 0.00 0.00 56 1016.2
20180924173005 76 346 2.0 8.0 0.00 0.00 0.00 56 1016.3
20180924172906 76 353 2.0 6.0 0.00 0.00 0.00 59 1016.3
20180924172805 76 348 2.0 6.0 0.00 0.00 0.00 58 1016.3
20180924172706 76 321 2.0 6.0 0.00 0.00 0.00 57 1016.3
20180924172606 76 302 2.0 6.0 0.00 0.00 0.00 56 1016.3
20180924172505 76 281 2.0 6.0 0.00 0.00 0.00 58 1016.3
20180924172406 76 263 2.0 6.0 0.00 0.00 0.00 57 1016.3
20180924172404 75 345 1.0 5.0 0.00 0.00 0.00 57 1016.3
20180924172305 76 240 2.0 6.0 0.00 0.00 0.00 58 1016.3
20180924172206 76 215 1.0 6.0 0.00 0.00 0.00 57 1016.4
20180924172105 76 205 1.0 6.0 0.00 0.00 0.00 56 1016.4
20180924172005 76 205 1.0 8.0 0.00 0.00 0.00 58 1016.5
20180924171905 76 201 1.0 8.0 0.00 0.00 0.00 57 1016.4
20180924171805 76 198 1.0 8.0 0.00 0.00 0.00 56 1016.4
20180924171705 75 206 1.0 8.0 0.00 0.00 0.00 57 1016.6
20180924171606 75 213 1.0 8.0 0.00 0.00 0.00 59 1016.5
20180924171505 75 219 1.0 8.0 0.00 0.00 0.00 62 1016.6
20180924171406 75 223 1.0 8.0 0.00 0.00 0.00 60 1016.6
20180924171305 75 229 1.0 8.0 0.00 0.00 0.00 58 1016.5
20180924171205 75 226 1.0 8.0 0.00 0.00 0.00 57 1016.5
20180924171106 75 224 1.0 8.0 0.00 0.00 0.00 57 1016.7
20180924171005 75 224 1.0 6.0 0.00 0.00 0.00 61 1016.7
20180924170905 75 232 1.0 6.0 0.00 0.00 0.00 59 1016.7
20180924170806 75 280 1.0 6.0 0.00 0.00 0.00 59 1016.7
20180924170708 75 225 2.0 9.0 0.00 0.00 0.00 57 1016.7
20180924170610 74 240 1.0 5.0 0.00 0.00 0.00 58 1016.7
20180924170606 75 198 2.0 9.0 0.00 0.00 0.00 58 1016.8
20180924170505 74 158 2.0 9.0 0.00 0.00 0.00 58 1016.8
20180924170406 74 167 2.0 9.0 0.00 0.00 0.00 57 1016.8
20180924170305 74 189 2.0 9.0 0.00 0.00 0.00 59 1016.8
20180924170205 74 193 2.0 9.0 0.00 0.00 0.00 59 1016.9
20180924170106 74 199 2.0 9.0 0.00 0.00 0.00 55 1016.9
20180924170006 74 205 2.0 9.0 0.00 0.00 0.00 57 1016.9
20180924165905 74 213 2.0 9.0 0.00 0.00 0.00 56 1016.9
20180924165806 74 206 2.0 9.0 0.00 0.00 0.00 56 1016.9
20180924165706 74 214 2.0 6.0 0.00 0.00 0.00 60 1017.0
20180924165605 74 219 2.0 6.0 0.00 0.00 0.00 56 1017.0
20180924165507 74 221 2.0 9.0 0.00 0.00 0.00 57 1017.0
20180924165405 74 221 2.0 9.0 0.00 0.00 0.00 61 1017.0
20180924165306 74 219 2.0 9.0 0.00 0.00 0.00 56 1017.0
20180924165205 74 218 2.0 9.0 0.00 0.00 0.00 58 1017.0
20180924165106 74 216 2.0 9.0 0.00 0.00 0.00 55 1017.0
20180924165005 74 215 2.0 9.0 0.00 0.00 0.00 58 1017.0
20180924164906 74 211 2.0 9.0 0.00 0.00 0.00 59 1017.0
20180924164805 73 215 1.0 6.0 0.00 0.00 0.00 60 1017.0
20180924164706 74 210 1.0 9.0 0.00 0.00 0.00 57 1017.1
20180924164606 74 210 1.0 9.0 0.00 0.00 0.00 57 1017.1
20180924164506 73 208 1.0 6.0 0.00 0.00 0.00 58 1017.1
20180924164405 73 202 1.0 6.0 0.00 0.00 0.00 57 1017.1
20180924164306 73 200 0.0 3.0 0.00 0.00 0.00 58 1017.1
20180924164206 73 200 0.0 3.0 0.00 0.00 0.00 61 1017.2
20180924164106 73 0 0.0 0.0 0.00 0.00 0.00 60 1017.2
20180924164008 73 5 0.0 2.0 0.00 0.00 0.00 61 1017.2
20180924163905 73 5 0.0 3.0 0.00 0.00 0.00 63 1017.2
20180924163806 73 5 0.0 4.0 0.00 0.00 0.00 61 1017.2
20180924163706 73 348 1.0 4.0 0.00 0.00 0.00 63 1017.2
20180924163605 73 341 1.0 4.0 0.00 0.00 0.00 62 1017.2
20180924163505 72 279 1.0 6.0 0.00 0.00 0.00 61 1017.3
20180924163405 72 252 1.0 6.0 0.00 0.00 0.00 62 1017.3
20180924163306 72 233 1.0 6.0 0.00 0.00 0.00 62 1017.3
20180924163205 72 232 2.0 6.0 0.00 0.00 0.00 62 1017.4
20180924163106 72 229 2.0 6.0 0.00 0.00 0.00 61 1017.3
20180924163005 72 221 2.0 6.0 0.00 0.00 0.00 63 1017.3
20180924162906 72 210 2.0 6.0 0.00 0.00 0.00 63 1017.3
20180924162806 72 208 1.0 6.0 0.00 0.00 0.00 63 1017.3
20180924162705 72 198 1.0 6.0 0.00 0.00 0.00 66 1017.3
20180924162605 72 198 1.0 6.0 0.00 0.00 0.00 65 1017.3
20180924162505 72 191 1.0 6.0 0.00 0.00 0.00 67 1017.3
20180924162406 72 187 1.0 6.0 0.00 0.00 0.00 66 1017.4
20180924162305 71 176 0.0 3.0 0.00 0.00 0.00 65 1017.4
20180924162205 71 175 0.0 3.0 0.00 0.00 0.00 65 1017.3
20180924162106 71 152 0.0 3.0 0.00 0.00 0.00 65 1017.4
20180924162005 71 95 0.0 3.0 0.00 0.00 0.00 64 1017.3
20180924161906 71 34 0.0 4.0 0.00 0.00 0.00 66 1017.3
20180924161805 71 35 1.0 4.0 0.00 0.00 0.00 67 1017.3
20180924161705 70 35 1.0 4.0 0.00 0.00 0.00 69 1017.4
20180924161605 70 35 1.0 4.0 0.00 0.00 0.00 69 1017.3
20180924161505 70 44 1.0 4.0 0.00 0.00 0.00 67 1017.4
20180924161406 70 44 1.0 4.0 0.00 0.00 0.00 67 1017.4
20180924161306 70 44 1.0 4.0 0.00 0.00 0.00 69 1017.4
20180924161205 69 33 0.0 3.0 0.00 0.00 0.00 71 1017.4
20180924161106 70 61 1.0 4.0 0.00 0.00 0.00 71 1017.4
20180924161006 70 140 1.0 4.0 0.00 0.00 0.00 69 1017.4
20180924160907 70 210 0.0 3.0 0.00 0.00 0.00 69 1017.5
20180924160806 69 205 1.0 9.0 0.00 0.00 0.00 68 1017.5
20180924160707 69 211 1.0 9.0 0.00 0.00 0.00 68 1017.5
20180924160605 69 211 1.0 9.0 0.00 0.00 0.00 67 1017.5
20180924160506 69 211 1.0 9.0 0.00 0.00 0.00 69 1017.5
20180924160405 69 212 1.0 9.0 0.00 0.00 0.00 70 1017.6
20180924160305 69 216 1.0 9.0 0.00 0.00 0.00 70 1017.6
20180924160205 69 216 1.0 9.0 0.00 0.00 0.00 70 1017.6
20180924160106 69 216 1.0 9.0 0.00 0.00 0.00 70 1017.6
20180924160005 69 216 1.0 9.0 0.00 0.00 0.00 70 1017.6
20180924155906 69 217 1.0 9.0 0.00 0.00 0.00 69 1017.6
20180924155807 69 242 0.0 3.0 0.00 0.00 0.00 72 1017.6
20180924155705 68 231 0.0 3.0 0.00 0.00 0.00 72 1017.6
20180924155606 68 233 1.0 4.0 0.00 0.00 0.00 72 1017.6
20180924155506 68 240 0.0 4.0 0.00 0.00 0.00 73 1017.6
20180924155405 68 248 0.0 4.0 0.00 0.00 0.00 74 1017.7
20180924155306 68 239 0.0 4.0 0.00 0.00 0.00 76 1017.7
20180924155205 68 239 0.0 4.0 0.00 0.00 0.00 73 1017.7
20180924155106 68 239 0.0 4.0 0.00 0.00 0.00 73 1017.8
20180924155007 68 239 0.0 4.0 0.00 0.00 0.00 75 1017.7
20180924154905 68 224 0.0 6.0 0.00 0.00 0.00 74 1017.8
20180924154806 68 223 0.0 6.0 0.00 0.00 0.00 75 1017.8
20180924154705 68 216 1.0 6.0 0.00 0.00 0.00 75 1017.8
20180924154606 68 58 1.0 6.0 0.00 0.00 0.00 78 1017.8
20180924154505 67 48 1.0 6.0 0.00 0.00 0.00 78 1017.9
20180924154406 67 42 1.0 8.0 0.00 0.00 0.00 79 1017.9
20180924154305 67 44 1.0 8.0 0.00 0.00 0.00 79 1017.9
20180924154206 67 48 1.0 8.0 0.00 0.00 0.00 79 1017.9
20180924154105 67 48 1.0 8.0 0.00 0.00 0.00 76 1017.9
20180924154006 67 48 1.0 8.0 0.00 0.00 0.00 77 1017.9
20180924153906 67 42 1.0 8.0 0.00 0.00 0.00 76 1018.0
20180924153805 67 42 1.0 8.0 0.00 0.00 0.00 77 1017.9
20180924153706 66 55 1.0 8.0 0.00 0.00 0.00 77 1017.9
20180924153605 66 71 1.0 8.0 0.00 0.00 0.00 76 1018.0
20180924153506 66 146 1.0 8.0 0.00 0.00 0.00 80 1017.9
20180924153406 66 199 0.0 3.0 0.00 0.00 0.00 80 1017.9
20180924153306 66 206 1.0 4.0 0.00 0.00 0.00 81 1017.9
20180924153206 66 208 1.0 4.0 0.00 0.00 0.00 79 1018.0
20180924153105 66 208 1.0 4.0 0.00 0.00 0.00 79 1018.0
20180924153006 66 208 1.0 4.0 0.00 0.00 0.00 78 1018.0
20180924152905 66 208 1.0 4.0 0.00 0.00 0.00 78 1018.0
20180924152805 66 208 1.0 4.0 0.00 0.00 0.00 80 1018.0
20180924152705 66 210 1.0 4.0 0.00 0.00 0.00 80 1018.1
20180924152606 66 210 1.0 4.0 0.00 0.00 0.00 80 1018.1
20180924152505 66 210 1.0 4.0 0.00 0.00 0.00 79 1018.1
20180924152406 65 210 0.0 4.0 0.00 0.00 0.00 80 1018.1
20180924152305 65 210 0.0 4.0 0.00 0.00 0.00 80 1018.1
20180924152205 65 210 0.0 4.0 0.00 0.00 0.00 80 1018.2
20180924152106 65 0 0.0 0.0 0.00 0.00 0.00 80 1018.1
20180924152005 65 0 0.0 0.0 0.00 0.00 0.00 81 1018.2
20180924151906 65 0 0.0 0.0 0.00 0.00 0.00 81 1018.2
20180924151805 65 0 0.0 0.0 0.00 0.00 0.00 80 1018.2